Time,TemperatureF,DewpointF,PressureIn,WindDirection,WindDirectionDegrees,WindSpeedMPH,WindSpeedGustMPH,Humidity,HourlyPrecipIn,Conditions,Clouds,dailyrainin,SoftwareType,DateUTC
2013-01-20 00:00:00,10.2,-0.9,30.30,NNW,338,0.0,0.0,60,0.00,,---,0.00,VWS V14.00,2013-01-20 08:00:00,
2013-01-20 00:02:00,10.0,-1.1,30.30,NNW,338,0.0,0.0,60,0.00,,---,0.00,VWS V14.00,2013-01-20 08:02:00,
2013-01-20 00:03:00,10.0,-1.1,30.30,NNW,338,0.0,0.0,60,0.00,,---,0.00,VWS V14.00,2013-01-20 08:03:00,
2013-01-20 00:05:00,9.9,-1.2,30.30,NNW,338,0.0,0.0,60,0.00,,---,0.00,VWS V14.00,2013-01-20 08:05:00,
2013-01-20 00:06:00,9.9,-1.2,30.30,NNW,338,0.0,0.0,60,0.00,,---,0.00,VWS V14.00,2013-01-20 08:06:00,
2013-01-20 00:07:00,9.9,-1.2,30.30,NNW,338,0.0,0.0,60,0.00,,---,0.00,VWS V14.00,2013-01-20 08:07:00,
2013-01-20 00:08:00,9.9,-1.2,30.30,NNW,338,0.0,0.0,60,0.00,,---,0.00,VWS V14.00,2013-01-20 08:08:00,
2013-01-20 00:10:00,10.0,-1.1,30.30,NNW,338,0.0,0.0,60,0.00,,---,0.00,VWS V14.00,2013-01-20 08:10:00,
2013-01-20 00:11:00,10.0,-1.1,30.30,NNW,338,0.0,0.0,60,0.00,,---,0.00,VWS V14.00,2013-01-20 08:11:00,
2013-01-20 00:12:00,10.0,-1.1,30.30,NNW,338,0.0,0.0,60,0.00,,---,0.00,VWS V14.00,2013-01-20 08:12:00,
2013-01-20 00:13:00,10.0,-1.1,30.30,NNW,338,0.0,0.0,60,0.00,,---,0.00,VWS V14.00,2013-01-20 08:13:00,
2013-01-20 00:15:00,10.0,-1.1,30.27,NNW,338,0.0,0.0,60,0.00,,---,0.00,VWS V14.00,2013-01-20 08:15:00,
2013-01-20 00:16:00,10.0,-1.1,30.27,NNW,338,0.0,0.0,60,0.00,,---,0.00,VWS V14.00,2013-01-20 08:16:00,
2013-01-20 00:17:00,10.0,-1.1,30.27,NNW,338,0.0,0.0,60,0.00,,---,0.00,VWS V14.00,2013-01-20 08:17:00,
2013-01-20 00:18:00,10.0,-1.1,30.27,NNW,338,0.0,0.0,60,0.00,,---,0.00,VWS V14.00,2013-01-20 08:18:00,
2013-01-20 00:20:00,10.4,-0.7,30.27,NNW,338,0.0,0.0,60,0.00,,---,0.00,VWS V14.00,2013-01-20 08:20:00,
2013-01-20 00:22:00,10.2,-0.9,30.27,NNW,338,0.0,0.0,60,0.00,,---,0.00,VWS V14.00,2013-01-20 08:22:00,
2013-01-20 00:24:00,10.2,-0.9,30.27,NNW,338,0.0,0.0,60,0.00,,---,0.00,VWS V14.00,2013-01-20 08:24:00,
2013-01-20 00:25:00,10.0,-1.1,30.27,NNW,338,0.0,0.0,60,0.00,,---,0.00,VWS V14.00,2013-01-20 08:25:00,
2013-01-20 00:27:00,10.0,-1.1,30.27,NNW,338,0.0,0.0,60,0.00,,---,0.00,VWS V14.00,2013-01-20 08:27:00,
2013-01-20 00:29:00,9.7,-1.4,30.27,NNW,338,0.0,0.0,60,0.00,,---,0.00,VWS V14.00,2013-01-20 08:29:00,
2013-01-20 00:30:00,9.7,-1.4,30.30,NNW,338,0.0,0.0,60,0.00,,---,0.00,VWS V14.00,2013-01-20 08:30:00,
2013-01-20 00:32:00,9.5,-1.6,30.30,NNW,338,0.0,0.0,60,0.00,,---,0.00,VWS V14.00,2013-01-20 08:32:00,
2013-01-20 00:34:00,9.3,-1.7,30.30,NNW,338,0.0,0.0,60,0.00,,---,0.00,VWS V14.00,2013-01-20 08:34:00,
2013-01-20 00:35:00,9.1,-1.9,30.30,NNW,338,0.0,0.0,60,0.00,,---,0.00,VWS V14.00,2013-01-20 08:35:00,
2013-01-20 00:36:00,9.1,-1.9,30.30,NNW,338,0.0,0.0,60,0.00,,---,0.00,VWS V14.00,2013-01-20 08:36:00,
2013-01-20 00:37:00,9.1,-1.9,30.30,NNW,338,0.0,0.0,60,0.00,,---,0.00,VWS V14.00,2013-01-20 08:37:00,
2013-01-20 00:38:00,9.1,-1.9,30.30,NNW,338,0.0,0.0,60,0.00,,---,0.00,VWS V14.00,2013-01-20 08:38:00,
2013-01-20 00:39:00,9.1,-1.9,30.30,NNW,338,0.0,0.0,60,0.00,,---,0.00,VWS V14.00,2013-01-20 08:39:00,
2013-01-20 00:40:00,9.1,-1.9,30.30,NNW,338,0.0,0.0,60,0.00,,---,0.00,VWS V14.00,2013-01-20 08:40:00,
2013-01-20 00:41:00,9.1,-1.9,30.30,NNW,338,0.0,0.0,60,0.00,,---,0.00,VWS V14.00,2013-01-20 08:41:00,
2013-01-20 00:42:00,9.0,-2.1,30.30,NNW,338,0.0,0.0,60,0.00,,---,0.00,VWS V14.00,2013-01-20 08:42:00,
2013-01-20 00:43:00,9.0,-2.1,30.30,NNW,338,0.0,0.0,60,0.00,,---,0.00,VWS V14.00,2013-01-20 08:43:00,
2013-01-20 00:45:00,8.8,-2.3,30.30,NNW,338,0.0,0.0,60,0.00,,---,0.00,VWS V14.00,2013-01-20 08:45:00,
2013-01-20 00:46:00,8.8,-2.3,30.30,NNW,338,0.0,0.0,60,0.00,,---,0.00,VWS V14.00,2013-01-20 08:46:00,
2013-01-20 00:47:00,8.8,-2.3,30.30,NNW,338,0.0,0.0,60,0.00,,---,0.00,VWS V14.00,2013-01-20 08:47:00,
2013-01-20 00:48:00,8.6,-2.4,30.30,NNW,338,0.0,0.0,60,0.00,,---,0.00,VWS V14.00,2013-01-20 08:48:00,
2013-01-20 00:50:00,8.6,-2.4,30.30,NNW,338,0.0,0.0,60,0.00,,---,0.00,VWS V14.00,2013-01-20 08:50:00,
2013-01-20 00:51:00,8.6,-2.4,30.30,NNW,338,0.0,0.0,60,0.00,,---,0.00,VWS V14.00,2013-01-20 08:51:00,
2013-01-20 00:52:00,8.6,-2.4,30.30,NNW,338,0.0,0.0,60,0.00,,---,0.00,VWS V14.00,2013-01-20 08:52:00,
2013-01-20 00:53:00,8.6,-2.4,30.30,NNW,338,0.0,0.0,60,0.00,,---,0.00,VWS V14.00,2013-01-20 08:53:00,
2013-01-20 00:55:00,8.6,-2.4,30.30,NNW,338,0.0,0.0,60,0.00,,---,0.00,VWS V14.00,2013-01-20 08:55:00,
2013-01-20 00:56:00,8.6,-2.4,30.30,NNW,338,0.0,0.0,60,0.00,,---,0.00,VWS V14.00,2013-01-20 08:56:00,
2013-01-20 00:57:00,8.6,-2.4,30.30,NNW,338,0.0,0.0,60,0.00,,---,0.00,VWS V14.00,2013-01-20 08:57:00,
2013-01-20 00:58:00,8.6,-2.4,30.30,NNW,338,0.0,0.0,60,0.00,,---,0.00,VWS V14.00,2013-01-20 08:58:00,
2013-01-20 01:00:00,8.6,-2.4,30.30,NNW,338,0.0,0.0,60,0.00,,---,0.00,VWS V14.00,2013-01-20 09:00:00,
2013-01-20 01:01:00,8.6,-2.4,30.30,NNW,338,0.0,0.0,60,0.00,,---,0.00,VWS V14.00,2013-01-20 09:01:00,
2013-01-20 01:02:00,8.4,-2.6,30.30,NNW,338,0.0,0.0,60,0.00,,---,0.00,VWS V14.00,2013-01-20 09:02:00,
2013-01-20 01:03:00,8.4,-2.6,30.30,NNW,338,0.0,0.0,60,0.00,,---,0.00,VWS V14.00,2013-01-20 09:03:00,
2013-01-20 01:05:00,8.4,-2.6,30.30,NNW,338,0.0,0.0,60,0.00,,---,0.00,VWS V14.00,2013-01-20 09:05:00,
2013-01-20 01:06:00,8.2,-2.8,30.30,NNW,338,0.0,0.0,60,0.00,,---,0.00,VWS V14.00,2013-01-20 09:06:00,
2013-01-20 01:07:00,8.2,-2.8,30.30,NNW,338,0.0,0.0,60,0.00,,---,0.00,VWS V14.00,2013-01-20 09:07:00,
2013-01-20 01:08:00,8.1,-2.9,30.30,NNW,338,0.0,0.0,60,0.00,,---,0.00,VWS V14.00,2013-01-20 09:08:00,
2013-01-20 01:10:00,8.1,-2.9,30.30,NNW,338,0.0,0.0,60,0.00,,---,0.00,VWS V14.00,2013-01-20 09:10:00,
2013-01-20 01:11:00,8.1,-2.9,30.30,NNW,338,0.0,0.0,60,0.00,,---,0.00,VWS V14.00,2013-01-20 09:11:00,
2013-01-20 01:12:00,7.9,-3.1,30.30,NNW,338,0.0,0.0,60,0.00,,---,0.00,VWS V14.00,2013-01-20 09:12:00,
2013-01-20 01:13:00,7.9,-3.1,30.30,NNW,338,0.0,0.0,60,0.00,,---,0.00,VWS V14.00,2013-01-20 09:13:00,
2013-01-20 01:15:00,7.9,-3.1,30.30,NNW,338,0.0,0.0,60,0.00,,---,0.00,VWS V14.00,2013-01-20 09:15:00,
2013-01-20 01:17:00,7.9,-3.1,30.30,NNW,338,0.0,0.0,60,0.00,,---,0.00,VWS V14.00,2013-01-20 09:17:00,
2013-01-20 01:18:00,7.7,-3.3,30.30,NNW,338,0.0,0.0,60,0.00,,---,0.00,VWS V14.00,2013-01-20 09:18:00,
2013-01-20 01:19:00,7.7,-3.3,30.30,NNW,338,0.0,0.0,60,0.00,,---,0.00,VWS V14.00,2013-01-20 09:19:00,
2013-01-20 01:20:00,7.7,-3.3,30.30,NNW,338,0.0,0.0,60,0.00,,---,0.00,VWS V14.00,2013-01-20 09:20:00,
2013-01-20 01:22:00,7.7,-3.3,30.30,NNW,338,0.0,0.0,60,0.00,,---,0.00,VWS V14.00,2013-01-20 09:22:00,
2013-01-20 01:23:00,7.7,-3.3,30.30,NNW,338,0.0,0.0,60,0.00,,---,0.00,VWS V14.00,2013-01-20 09:23:00,
2013-01-20 01:24:00,7.7,-3.3,30.30,NNW,338,0.0,0.0,60,0.00,,---,0.00,VWS V14.00,2013-01-20 09:24:00,
2013-01-20 01:25:00,7.9,-3.1,30.30,NNW,338,0.0,0.0,60,0.00,,---,0.00,VWS V14.00,2013-01-20 09:25:00,
2013-01-20 01:27:00,7.9,-3.1,30.30,NNW,338,0.0,0.0,60,0.00,,---,0.00,VWS V14.00,2013-01-20 09:27:00,
2013-01-20 01:28:00,7.9,-3.1,30.30,NNW,338,0.0,0.0,60,0.00,,---,0.00,VWS V14.00,2013-01-20 09:28:00,
2013-01-20 01:29:00,7.9,-3.1,30.30,NNW,338,0.0,0.0,60,0.00,,---,0.00,VWS V14.00,2013-01-20 09:29:00,
2013-01-20 01:30:00,7.9,-3.1,30.30,NNW,338,0.0,0.0,60,0.00,,---,0.00,VWS V14.00,2013-01-20 09:30:00,
2013-01-20 01:31:00,7.9,-3.1,30.30,NNW,338,0.0,0.0,60,0.00,,---,0.00,VWS V14.00,2013-01-20 09:31:00,
2013-01-20 01:32:00,7.9,-3.1,30.30,NNW,338,0.0,0.0,60,0.00,,---,0.00,VWS V14.00,2013-01-20 09:32:00,
2013-01-20 01:33:00,7.9,-3.1,30.30,NNW,338,0.0,0.0,60,0.00,,---,0.00,VWS V14.00,2013-01-20 09:33:00,
2013-01-20 01:34:00,7.9,-3.1,30.30,NNW,338,0.0,0.0,60,0.00,,---,0.00,VWS V14.00,2013-01-20 09:34:00,
2013-01-20 01:35:00,8.1,-2.9,30.30,NNW,338,0.0,0.0,60,0.00,,---,0.00,VWS V14.00,2013-01-20 09:35:00,
2013-01-20 01:36:00,8.1,-2.9,30.30,NNW,338,0.0,0.0,60,0.00,,---,0.00,VWS V14.00,2013-01-20 09:36:00,
2013-01-20 01:37:00,8.1,-2.9,30.30,NNW,338,0.0,0.0,60,0.00,,---,0.00,VWS V14.00,2013-01-20 09:37:00,
2013-01-20 01:38:00,8.1,-2.9,30.30,NNW,338,0.0,0.0,60,0.00,,---,0.00,VWS V14.00,2013-01-20 09:38:00,
2013-01-20 01:39:00,8.1,-2.9,30.30,NNW,338,0.0,0.0,60,0.00,,---,0.00,VWS V14.00,2013-01-20 09:39:00,
2013-01-20 01:40:00,7.0,-4.0,30.30,NNW,338,0.0,0.0,60,0.00,,---,0.00,VWS V14.00,2013-01-20 09:40:00,
2013-01-20 01:41:00,8.2,-2.8,30.30,NNW,338,0.0,0.0,60,0.00,,---,0.00,VWS V14.00,2013-01-20 09:41:00,
2013-01-20 01:42:00,8.2,-2.8,30.30,NNW,338,0.0,0.0,60,0.00,,---,0.00,VWS V14.00,2013-01-20 09:42:00,
2013-01-20 01:43:00,8.2,-2.8,30.30,NNW,338,0.0,0.0,60,0.00,,---,0.00,VWS V14.00,2013-01-20 09:43:00,
2013-01-20 01:44:00,8.4,-2.6,30.30,NNW,338,0.0,0.0,60,0.00,,---,0.00,VWS V14.00,2013-01-20 09:44:00,
2013-01-20 01:45:00,8.4,-2.6,30.30,NNW,338,0.0,0.0,60,0.00,,---,0.00,VWS V14.00,2013-01-20 09:45:00,
2013-01-20 01:46:00,8.4,-2.6,30.30,NNW,338,0.0,0.0,60,0.00,,---,0.00,VWS V14.00,2013-01-20 09:46:00,
2013-01-20 01:47:00,8.2,-2.8,30.30,NNW,338,0.0,0.0,60,0.00,,---,0.00,VWS V14.00,2013-01-20 09:47:00,
2013-01-20 01:48:00,8.2,-2.8,30.30,NNW,338,0.0,0.0,60,0.00,,---,0.00,VWS V14.00,2013-01-20 09:48:00,
2013-01-20 01:49:00,7.9,-3.1,30.30,NNW,338,0.0,0.0,60,0.00,,---,0.00,VWS V14.00,2013-01-20 09:49:00,
2013-01-20 01:50:00,7.9,-3.1,30.30,NNW,338,0.0,0.0,60,0.00,,---,0.00,VWS V14.00,2013-01-20 09:50:00,
2013-01-20 01:52:00,7.7,-3.3,30.30,NNW,338,0.0,0.0,60,0.00,,---,0.00,VWS V14.00,2013-01-20 09:52:00,
2013-01-20 01:53:00,7.7,-3.3,30.30,NNW,338,0.0,0.0,60,0.00,,---,0.00,VWS V14.00,2013-01-20 09:53:00,
2013-01-20 01:55:00,7.7,-3.3,30.30,NNW,338,0.0,0.0,60,0.00,,---,0.00,VWS V14.00,2013-01-20 09:55:00,
2013-01-20 01:57:00,7.5,-3.5,30.30,NNW,338,0.0,0.0,60,0.00,,---,0.00,VWS V14.00,2013-01-20 09:57:00,
2013-01-20 01:58:00,7.5,-3.5,30.30,NNW,338,0.0,0.0,60,0.00,,---,0.00,VWS V14.00,2013-01-20 09:58:00,
2013-01-20 02:00:00,7.5,-3.5,30.30,NNW,338,0.0,0.0,60,0.00,,---,0.00,VWS V14.00,2013-01-20 10:00:00,
2013-01-20 02:02:00,7.5,-3.5,30.30,NNW,338,0.0,0.0,60,0.00,,---,0.00,VWS V14.00,2013-01-20 10:02:00,
2013-01-20 02:03:00,7.5,-3.5,30.30,NNW,338,0.0,0.0,60,0.00,,---,0.00,VWS V14.00,2013-01-20 10:03:00,
2013-01-20 02:05:00,7.5,-3.5,30.30,NNW,338,0.0,0.0,60,0.00,,---,0.00,VWS V14.00,2013-01-20 10:05:00,
2013-01-20 02:07:00,7.5,-3.5,30.30,NNW,338,0.0,0.0,60,0.00,,---,0.00,VWS V14.00,2013-01-20 10:07:00,
2013-01-20 02:08:00,7.5,-3.5,30.30,NNW,338,0.0,0.0,60,0.00,,---,0.00,VWS V14.00,2013-01-20 10:08:00,
2013-01-20 02:10:00,7.7,-3.3,30.30,NNW,338,0.0,0.0,60,0.00,,---,0.00,VWS V14.00,2013-01-20 10:10:00,
2013-01-20 02:12:00,7.7,-3.3,30.30,NNW,338,0.0,0.0,60,0.00,,---,0.00,VWS V14.00,2013-01-20 10:12:00,
2013-01-20 02:13:00,8.1,-2.9,30.30,NNW,338,0.0,0.0,60,0.00,,---,0.00,VWS V14.00,2013-01-20 10:13:00,
2013-01-20 02:15:00,8.1,-2.9,30.30,NNW,338,0.0,0.0,60,0.00,,---,0.00,VWS V14.00,2013-01-20 10:15:00,
2013-01-20 02:17:00,8.1,-2.9,30.30,NNW,338,0.0,0.0,60,0.00,,---,0.00,VWS V14.00,2013-01-20 10:17:00,
2013-01-20 02:18:00,7.7,-3.3,30.30,NNW,338,0.0,0.0,60,0.00,,---,0.00,VWS V14.00,2013-01-20 10:18:00,
2013-01-20 02:20:00,7.7,-3.3,30.30,NNW,338,0.0,0.0,60,0.00,,---,0.00,VWS V14.00,2013-01-20 10:20:00,
2013-01-20 02:22:00,7.5,-3.5,30.30,NNW,338,0.0,0.0,60,0.00,,---,0.00,VWS V14.00,2013-01-20 10:22:00,
2013-01-20 02:23:00,7.5,-3.5,30.30,NNW,338,0.0,0.0,60,0.00,,---,0.00,VWS V14.00,2013-01-20 10:23:00,
2013-01-20 02:25:00,7.5,-3.5,30.30,NNW,338,0.0,0.0,60,0.00,,---,0.00,VWS V14.00,2013-01-20 10:25:00,
2013-01-20 02:27:00,7.5,-3.5,30.30,NNW,338,0.0,0.0,60,0.00,,---,0.00,VWS V14.00,2013-01-20 10:27:00,
2013-01-20 02:28:00,7.5,-3.5,30.30,NNW,338,0.0,0.0,60,0.00,,---,0.00,VWS V14.00,2013-01-20 10:28:00,
2013-01-20 02:30:00,7.2,-3.8,30.30,NNW,338,0.0,0.0,60,0.00,,---,0.00,VWS V14.00,2013-01-20 10:30:00,
2013-01-20 02:32:00,7.0,-4.0,30.30,NNW,338,0.0,0.0,60,0.00,,---,0.00,VWS V14.00,2013-01-20 10:32:00,
2013-01-20 02:33:00,7.0,-4.0,30.30,NNW,338,0.0,0.0,60,0.00,,---,0.00,VWS V14.00,2013-01-20 10:33:00,
2013-01-20 02:35:00,7.0,-4.0,30.30,NNW,338,0.0,0.0,60,0.00,,---,0.00,VWS V14.00,2013-01-20 10:35:00,
2013-01-20 02:37:00,7.0,-4.0,30.30,NNW,338,0.0,0.0,60,0.00,,---,0.00,VWS V14.00,2013-01-20 10:37:00,
2013-01-20 02:38:00,7.0,-4.0,30.30,NNW,338,0.0,0.0,60,0.00,,---,0.00,VWS V14.00,2013-01-20 10:38:00,
2013-01-20 02:39:00,7.0,-4.0,30.30,NNW,338,0.0,0.0,60,0.00,,---,0.00,VWS V14.00,2013-01-20 10:39:00,
2013-01-20 02:40:00,7.0,-4.0,30.30,NNW,338,0.0,0.0,60,0.00,,---,0.00,VWS V14.00,2013-01-20 10:40:00,
2013-01-20 02:42:00,6.8,-4.1,30.30,NNW,338,0.0,0.0,60,0.00,,---,0.00,VWS V14.00,2013-01-20 10:42:00,
2013-01-20 02:43:00,6.8,-4.1,30.30,NNW,338,0.0,0.0,60,0.00,,---,0.00,VWS V14.00,2013-01-20 10:43:00,
2013-01-20 02:44:00,6.8,-4.1,30.30,NNW,338,0.0,0.0,60,0.00,,---,0.00,VWS V14.00,2013-01-20 10:44:00,
2013-01-20 02:45:00,7.0,-4.0,30.30,NNW,338,0.0,0.0,60,0.00,,---,0.00,VWS V14.00,2013-01-20 10:45:00,
2013-01-20 02:47:00,7.0,-4.0,30.30,NNW,338,0.0,0.0,60,0.00,,---,0.00,VWS V14.00,2013-01-20 10:47:00,
2013-01-20 02:48:00,7.0,-4.0,30.30,NNW,338,0.0,0.0,60,0.00,,---,0.00,VWS V14.00,2013-01-20 10:48:00,
2013-01-20 02:49:00,7.0,-4.0,30.30,NNW,338,0.0,0.0,60,0.00,,---,0.00,VWS V14.00,2013-01-20 10:49:00,
2013-01-20 02:50:00,7.0,-4.0,30.30,NNW,338,0.0,0.0,60,0.00,,---,0.00,VWS V14.00,2013-01-20 10:50:00,
2013-01-20 02:52:00,6.8,-4.1,30.30,NNW,338,0.0,0.0,60,0.00,,---,0.00,VWS V14.00,2013-01-20 10:52:00,
2013-01-20 02:53:00,6.8,-4.1,30.30,NNW,338,0.0,0.0,60,0.00,,---,0.00,VWS V14.00,2013-01-20 10:53:00,
2013-01-20 02:54:00,6.8,-4.1,30.30,NNW,338,0.0,0.0,60,0.00,,---,0.00,VWS V14.00,2013-01-20 10:54:00,
2013-01-20 02:55:00,6.8,-4.1,30.30,NNW,338,0.0,0.0,60,0.00,,---,0.00,VWS V14.00,2013-01-20 10:55:00,
2013-01-20 02:57:00,6.8,-4.1,30.30,NNW,338,0.0,0.0,60,0.00,,---,0.00,VWS V14.00,2013-01-20 10:57:00,
2013-01-20 02:58:00,6.8,-4.1,30.30,NNW,338,0.0,0.0,60,0.00,,---,0.00,VWS V14.00,2013-01-20 10:58:00,
2013-01-20 02:59:00,6.8,-4.1,30.30,NNW,338,0.0,0.0,60,0.00,,---,0.00,VWS V14.00,2013-01-20 10:59:00,
2013-01-20 03:00:00,6.8,-4.1,30.30,NNW,338,0.0,0.0,60,0.00,,---,0.00,VWS V14.00,2013-01-20 11:00:00,
2013-01-20 03:02:00,7.0,-4.0,30.27,NNW,338,0.0,0.0,60,0.00,,---,0.00,VWS V14.00,2013-01-20 11:02:00,
2013-01-20 03:04:00,7.0,-4.0,30.27,NNW,338,0.0,0.0,60,0.00,,---,0.00,VWS V14.00,2013-01-20 11:04:00,
2013-01-20 03:05:00,7.0,-4.0,30.27,NNW,338,0.0,0.0,60,0.00,,---,0.00,VWS V14.00,2013-01-20 11:05:00,
2013-01-20 03:06:00,7.0,-4.0,30.27,NNW,338,0.0,0.0,60,0.00,,---,0.00,VWS V14.00,2013-01-20 11:06:00,
2013-01-20 03:08:00,7.2,-3.8,30.27,NNW,338,0.0,0.0,60,0.00,,---,0.00,VWS V14.00,2013-01-20 11:08:00,
2013-01-20 03:09:00,7.5,-3.5,30.27,NNW,338,0.0,0.0,60,0.00,,---,0.00,VWS V14.00,2013-01-20 11:09:00,
2013-01-20 03:10:00,7.7,-3.3,30.27,NNW,338,0.0,0.0,60,0.00,,---,0.00,VWS V14.00,2013-01-20 11:10:00,
2013-01-20 03:11:00,7.7,-3.3,30.27,NNW,338,0.0,0.0,60,0.00,,---,0.00,VWS V14.00,2013-01-20 11:11:00,
2013-01-20 03:13:00,7.9,-3.1,30.27,NNW,338,0.0,0.0,60,0.00,,---,0.00,VWS V14.00,2013-01-20 11:13:00,
2013-01-20 03:14:00,7.9,-3.1,30.30,NNW,338,0.0,0.0,60,0.00,,---,0.00,VWS V14.00,2013-01-20 11:14:00,
2013-01-20 03:15:00,7.9,-3.1,30.30,NNW,338,0.0,0.0,60,0.00,,---,0.00,VWS V14.00,2013-01-20 11:15:00,
2013-01-20 03:16:00,7.9,-3.1,30.30,NNW,338,0.0,0.0,60,0.00,,---,0.00,VWS V14.00,2013-01-20 11:16:00,
2013-01-20 03:18:00,7.9,-3.1,30.30,NNW,338,0.0,0.0,60,0.00,,---,0.00,VWS V14.00,2013-01-20 11:18:00,
2013-01-20 03:19:00,7.9,-3.1,30.30,NNW,338,0.0,0.0,60,0.00,,---,0.00,VWS V14.00,2013-01-20 11:19:00,
2013-01-20 03:20:00,7.7,-3.3,30.30,NNW,338,0.0,0.0,60,0.00,,---,0.00,VWS V14.00,2013-01-20 11:20:00,
2013-01-20 03:21:00,7.7,-3.3,30.30,NNW,338,0.0,0.0,60,0.00,,---,0.00,VWS V14.00,2013-01-20 11:21:00,
2013-01-20 03:23:00,7.5,-3.5,30.30,NNW,338,0.0,0.0,60,0.00,,---,0.00,VWS V14.00,2013-01-20 11:23:00,
2013-01-20 03:24:00,7.5,-3.5,30.30,NNW,338,0.0,0.0,60,0.00,,---,0.00,VWS V14.00,2013-01-20 11:24:00,
2013-01-20 03:25:00,7.0,-4.0,30.30,NNW,338,0.0,0.0,60,0.00,,---,0.00,VWS V14.00,2013-01-20 11:25:00,
2013-01-20 03:26:00,7.0,-4.0,30.30,NNW,338,0.0,0.0,60,0.00,,---,0.00,VWS V14.00,2013-01-20 11:26:00,
2013-01-20 03:28:00,7.0,-4.0,30.30,NNW,338,0.0,0.0,60,0.00,,---,0.00,VWS V14.00,2013-01-20 11:28:00,
2013-01-20 03:29:00,7.0,-4.0,30.30,NNW,338,0.0,0.0,60,0.00,,---,0.00,VWS V14.00,2013-01-20 11:29:00,
2013-01-20 03:30:00,7.0,-4.0,30.30,NNW,338,0.0,0.0,60,0.00,,---,0.00,VWS V14.00,2013-01-20 11:30:00,
2013-01-20 03:31:00,7.0,-4.0,30.30,NNW,338,0.0,0.0,60,0.00,,---,0.00,VWS V14.00,2013-01-20 11:31:00,
2013-01-20 03:33:00,6.8,-4.1,30.30,NNW,338,0.0,0.0,60,0.00,,---,0.00,VWS V14.00,2013-01-20 11:33:00,
2013-01-20 03:34:00,6.8,-4.1,30.30,NNW,338,0.0,0.0,60,0.00,,---,0.00,VWS V14.00,2013-01-20 11:34:00,
2013-01-20 03:35:00,6.8,-4.1,30.30,NNW,338,0.0,0.0,60,0.00,,---,0.00,VWS V14.00,2013-01-20 11:35:00,
2013-01-20 03:36:00,6.8,-4.1,30.30,NNW,338,0.0,0.0,60,0.00,,---,0.00,VWS V14.00,2013-01-20 11:36:00,
2013-01-20 03:38:00,6.8,-4.1,30.30,NNW,338,0.0,0.0,60,0.00,,---,0.00,VWS V14.00,2013-01-20 11:38:00,
2013-01-20 03:39:00,6.8,-4.1,30.30,NNW,338,0.0,0.0,60,0.00,,---,0.00,VWS V14.00,2013-01-20 11:39:00,
2013-01-20 03:40:00,6.8,-4.1,30.30,NNW,338,0.0,0.0,60,0.00,,---,0.00,VWS V14.00,2013-01-20 11:40:00,
2013-01-20 03:42:00,6.8,-4.1,30.30,NNW,338,0.0,0.0,60,0.00,,---,0.00,VWS V14.00,2013-01-20 11:42:00,
2013-01-20 03:43:00,6.8,-4.1,30.30,NNW,338,0.0,0.0,60,0.00,,---,0.00,VWS V14.00,2013-01-20 11:43:00,
2013-01-20 03:44:00,6.8,-4.1,30.30,NNW,338,0.0,0.0,60,0.00,,---,0.00,VWS V14.00,2013-01-20 11:44:00,
2013-01-20 03:45:00,6.8,-4.1,30.30,NNW,338,0.0,0.0,60,0.00,,---,0.00,VWS V14.00,2013-01-20 11:45:00,
2013-01-20 03:47:00,6.6,-4.3,30.30,NNW,338,0.0,0.0,60,0.00,,---,0.00,VWS V14.00,2013-01-20 11:47:00,
2013-01-20 03:48:00,6.6,-4.3,30.30,NNW,338,0.0,0.0,60,0.00,,---,0.00,VWS V14.00,2013-01-20 11:48:00,
2013-01-20 03:49:00,6.6,-4.3,30.30,NNW,338,0.0,0.0,60,0.00,,---,0.00,VWS V14.00,2013-01-20 11:49:00,
2013-01-20 03:50:00,6.6,-4.3,30.30,NNW,338,0.0,0.0,60,0.00,,---,0.00,VWS V14.00,2013-01-20 11:50:00,
2013-01-20 03:52:00,6.4,-4.5,30.30,NNW,338,0.0,0.0,60,0.00,,---,0.00,VWS V14.00,2013-01-20 11:52:00,
2013-01-20 03:53:00,6.6,-4.3,30.30,NNW,338,0.0,0.0,60,0.00,,---,0.00,VWS V14.00,2013-01-20 11:53:00,
2013-01-20 03:54:00,6.6,-4.3,30.30,NNW,338,0.0,0.0,60,0.00,,---,0.00,VWS V14.00,2013-01-20 11:54:00,
2013-01-20 03:55:00,6.6,-4.3,30.30,NNW,338,0.0,0.0,60,0.00,,---,0.00,VWS V14.00,2013-01-20 11:55:00,
2013-01-20 03:56:00,6.6,-4.3,30.30,NNW,338,0.0,0.0,60,0.00,,---,0.00,VWS V14.00,2013-01-20 11:56:00,
2013-01-20 03:57:00,6.4,-4.5,30.30,NNW,338,0.0,1.6,60,0.00,,---,0.00,VWS V14.00,2013-01-20 11:57:00,
2013-01-20 03:58:00,6.4,-4.5,30.30,NNW,338,0.0,1.6,60,0.00,,---,0.00,VWS V14.00,2013-01-20 11:58:00,
2013-01-20 03:59:00,6.3,-4.6,30.30,NNW,338,0.0,1.6,60,0.00,,---,0.00,VWS V14.00,2013-01-20 11:59:00,
2013-01-20 04:00:00,6.3,-4.6,30.30,NNW,338,0.0,1.6,60,0.00,,---,0.00,VWS V14.00,2013-01-20 12:00:00,
2013-01-20 04:01:00,6.3,-4.6,30.30,NNW,338,0.0,0.0,60,0.00,,---,0.00,VWS V14.00,2013-01-20 12:01:00,
2013-01-20 04:02:00,6.3,-4.6,30.30,NNW,338,0.0,0.0,60,0.00,,---,0.00,VWS V14.00,2013-01-20 12:02:00,
2013-01-20 04:03:00,6.3,-4.6,30.30,NNW,338,0.0,0.0,60,0.00,,---,0.00,VWS V14.00,2013-01-20 12:03:00,
2013-01-20 04:04:00,6.1,-4.8,30.30,NNW,338,0.0,0.0,60,0.00,,---,0.00,VWS V14.00,2013-01-20 12:04:00,
2013-01-20 04:05:00,6.3,-4.6,30.30,NNW,338,0.0,0.0,60,0.00,,---,0.00,VWS V14.00,2013-01-20 12:05:00,
2013-01-20 04:06:00,6.3,-4.6,30.30,NNW,338,0.0,0.0,60,0.00,,---,0.00,VWS V14.00,2013-01-20 12:06:00,
2013-01-20 04:07:00,6.3,-4.6,30.30,NNW,338,0.0,0.0,60,0.00,,---,0.00,VWS V14.00,2013-01-20 12:07:00,
2013-01-20 04:08:00,6.3,-4.6,30.30,NNW,338,0.0,0.0,60,0.00,,---,0.00,VWS V14.00,2013-01-20 12:08:00,
2013-01-20 04:10:00,6.3,-4.6,30.30,NNW,338,0.0,0.0,60,0.00,,---,0.00,VWS V14.00,2013-01-20 12:10:00,
2013-01-20 04:11:00,6.3,-4.6,30.30,NNW,338,0.0,0.0,60,0.00,,---,0.00,VWS V14.00,2013-01-20 12:11:00,
2013-01-20 04:12:00,5.9,-5.0,30.30,NNW,338,0.0,0.0,60,0.00,,---,0.00,VWS V14.00,2013-01-20 12:12:00,
2013-01-20 04:14:00,5.9,-5.0,30.30,NNW,338,0.0,0.0,60,0.00,,---,0.00,VWS V14.00,2013-01-20 12:14:00,
2013-01-20 04:15:00,5.9,-5.0,30.30,NNW,338,0.0,0.0,60,0.00,,---,0.00,VWS V14.00,2013-01-20 12:15:00,
2013-01-20 04:16:00,5.9,-5.0,30.30,NNW,338,0.0,0.0,60,0.00,,---,0.00,VWS V14.00,2013-01-20 12:16:00,
2013-01-20 04:17:00,5.9,-5.0,30.30,NNW,338,0.0,0.0,60,0.00,,---,0.00,VWS V14.00,2013-01-20 12:17:00,
2013-01-20 04:19:00,5.9,-5.0,30.30,NNW,338,0.0,0.0,60,0.00,,---,0.00,VWS V14.00,2013-01-20 12:19:00,
2013-01-20 04:20:00,5.9,-5.0,30.30,NNW,338,0.0,0.0,60,0.00,,---,0.00,VWS V14.00,2013-01-20 12:20:00,
2013-01-20 04:21:00,5.7,-5.2,30.30,NNW,338,0.0,0.0,60,0.00,,---,0.00,VWS V14.00,2013-01-20 12:21:00,
2013-01-20 04:22:00,5.7,-5.2,30.30,NNW,338,0.0,0.0,60,0.00,,---,0.00,VWS V14.00,2013-01-20 12:22:00,
2013-01-20 04:24:00,5.7,-5.2,30.30,NNW,338,0.0,0.0,60,0.00,,---,0.00,VWS V14.00,2013-01-20 12:24:00,
2013-01-20 04:25:00,5.7,-5.2,30.30,NNW,338,0.0,0.0,60,0.00,,---,0.00,VWS V14.00,2013-01-20 12:25:00,
2013-01-20 04:26:00,5.7,-5.2,30.30,NNW,338,0.0,0.0,60,0.00,,---,0.00,VWS V14.00,2013-01-20 12:26:00,
2013-01-20 04:28:00,5.7,-5.2,30.30,NNW,338,0.0,0.0,60,0.00,,---,0.00,VWS V14.00,2013-01-20 12:28:00,
2013-01-20 04:29:00,5.5,-5.3,30.30,NNW,338,1.6,1.6,60,0.00,,---,0.00,VWS V14.00,2013-01-20 12:29:00,
2013-01-20 04:30:00,5.4,-5.5,30.30,NNW,338,0.0,1.6,60,0.00,,---,0.00,VWS V14.00,2013-01-20 12:30:00,
2013-01-20 04:32:00,5.4,-5.5,30.30,NNW,338,0.0,0.0,60,0.00,,---,0.00,VWS V14.00,2013-01-20 12:32:00,
2013-01-20 04:33:00,5.4,-5.5,30.30,NNW,338,0.0,0.0,60,0.00,,---,0.00,VWS V14.00,2013-01-20 12:33:00,
2013-01-20 04:34:00,5.5,-5.3,30.30,West,270,0.0,0.0,60,0.00,,---,0.00,VWS V14.00,2013-01-20 12:34:00,
2013-01-20 04:35:00,5.4,-5.5,30.30,West,270,0.0,0.0,60,0.00,,---,0.00,VWS V14.00,2013-01-20 12:35:00,
2013-01-20 04:37:00,5.4,-5.5,30.30,West,270,0.0,0.0,60,0.00,,---,0.00,VWS V14.00,2013-01-20 12:37:00,
2013-01-20 04:39:00,5.4,-5.5,30.30,West,270,0.0,0.0,60,0.00,,---,0.00,VWS V14.00,2013-01-20 12:39:00,
2013-01-20 04:40:00,5.4,-5.5,30.30,West,270,0.0,0.0,60,0.00,,---,0.00,VWS V14.00,2013-01-20 12:40:00,
2013-01-20 04:42:00,5.5,-5.3,30.30,West,270,0.0,0.0,60,0.00,,---,0.00,VWS V14.00,2013-01-20 12:42:00,
2013-01-20 04:44:00,5.5,-5.3,30.30,West,270,0.0,0.0,60,0.00,,---,0.00,VWS V14.00,2013-01-20 12:44:00,
2013-01-20 04:45:00,5.5,-5.3,30.30,West,270,0.0,0.0,60,0.00,,---,0.00,VWS V14.00,2013-01-20 12:45:00,
2013-01-20 04:47:00,5.5,-5.3,30.30,West,270,0.0,0.0,60,0.00,,---,0.00,VWS V14.00,2013-01-20 12:47:00,
2013-01-20 04:49:00,5.4,-5.5,30.30,West,270,0.0,0.0,60,0.00,,---,0.00,VWS V14.00,2013-01-20 12:49:00,
2013-01-20 04:50:00,5.4,-5.5,30.30,West,270,0.0,0.0,60,0.00,,---,0.00,VWS V14.00,2013-01-20 12:50:00,
2013-01-20 04:52:00,5.4,-5.5,30.30,West,270,0.0,0.0,60,0.00,,---,0.00,VWS V14.00,2013-01-20 12:52:00,
2013-01-20 04:55:00,5.5,-5.3,30.30,West,270,0.0,0.0,60,0.00,,---,0.00,VWS V14.00,2013-01-20 12:55:00,
2013-01-20 04:57:00,5.4,-5.5,30.30,West,270,0.0,0.0,60,0.00,,---,0.00,VWS V14.00,2013-01-20 12:57:00,
2013-01-20 05:00:00,5.4,-5.5,30.30,West,270,0.0,0.0,60,0.00,,---,0.00,VWS V14.00,2013-01-20 13:00:00,
2013-01-20 05:02:00,5.5,-5.3,30.30,WNW,292,0.0,0.0,60,0.00,,---,0.00,VWS V14.00,2013-01-20 13:02:00,
2013-01-20 05:05:00,5.4,-5.5,30.30,WNW,292,0.0,0.0,60,0.00,,---,0.00,VWS V14.00,2013-01-20 13:05:00,
2013-01-20 05:08:00,5.4,-5.5,30.30,WNW,292,0.0,0.0,60,0.00,,---,0.00,VWS V14.00,2013-01-20 13:08:00,
2013-01-20 05:10:00,5.4,-5.5,30.30,WNW,292,0.0,0.0,60,0.00,,---,0.00,VWS V14.00,2013-01-20 13:10:00,
2013-01-20 05:13:00,5.5,-5.3,30.30,WNW,292,0.0,0.0,60,0.00,,---,0.00,VWS V14.00,2013-01-20 13:13:00,
2013-01-20 05:15:00,5.5,-5.3,30.30,NNE,22,0.0,0.0,60,0.00,,---,0.00,VWS V14.00,2013-01-20 13:15:00,
2013-01-20 05:18:00,5.5,-5.3,30.30,NNE,22,0.0,0.0,60,0.00,,---,0.00,VWS V14.00,2013-01-20 13:18:00,
2013-01-20 05:20:00,5.5,-5.3,30.30,NNE,22,0.0,0.0,60,0.00,,---,0.00,VWS V14.00,2013-01-20 13:20:00,
2013-01-20 05:21:00,5.4,-5.5,30.30,NNE,22,0.0,0.0,60,0.00,,---,0.00,VWS V14.00,2013-01-20 13:21:00,
2013-01-20 05:23:00,5.4,-5.5,30.30,NNE,22,0.0,0.0,60,0.00,,---,0.00,VWS V14.00,2013-01-20 13:23:00,
2013-01-20 05:25:00,5.2,-5.7,30.30,NNE,22,0.0,0.0,60,0.00,,---,0.00,VWS V14.00,2013-01-20 13:25:00,
2013-01-20 05:26:00,5.2,-5.7,30.30,NNE,22,0.0,0.0,60,0.00,,---,0.00,VWS V14.00,2013-01-20 13:26:00,
2013-01-20 05:28:00,5.0,-5.8,30.30,NNE,22,0.0,0.0,60,0.00,,---,0.00,VWS V14.00,2013-01-20 13:28:00,
2013-01-20 05:30:00,5.0,-5.8,30.30,NNE,22,0.0,0.0,60,0.00,,---,0.00,VWS V14.00,2013-01-20 13:30:00,
2013-01-20 05:31:00,5.0,-5.8,30.30,NNE,22,0.0,0.0,60,0.00,,---,0.00,VWS V14.00,2013-01-20 13:31:00,
2013-01-20 05:33:00,5.0,-5.8,30.30,NNE,22,0.0,0.0,60,0.00,,---,0.00,VWS V14.00,2013-01-20 13:33:00,
2013-01-20 05:35:00,5.0,-5.8,30.30,NNE,22,0.0,0.0,60,0.00,,---,0.00,VWS V14.00,2013-01-20 13:35:00,
2013-01-20 05:36:00,5.0,-5.8,30.30,NNE,22,0.0,0.0,60,0.00,,---,0.00,VWS V14.00,2013-01-20 13:36:00,
2013-01-20 05:38:00,4.6,-6.2,30.30,NNE,22,0.0,0.0,60,0.00,,---,0.00,VWS V14.00,2013-01-20 13:38:00,
2013-01-20 05:40:00,4.5,-6.3,30.30,NNE,22,0.0,0.0,60,0.00,,---,0.00,VWS V14.00,2013-01-20 13:40:00,
2013-01-20 05:41:00,4.5,-6.3,30.30,NNE,22,0.0,0.0,60,0.00,,---,0.00,VWS V14.00,2013-01-20 13:41:00,
2013-01-20 05:44:00,4.5,-6.3,30.30,NNE,22,0.0,0.0,60,0.00,,---,0.00,VWS V14.00,2013-01-20 13:44:00,
2013-01-20 05:45:00,4.5,-6.3,30.30,NNE,22,0.0,0.0,60,0.00,,---,0.00,VWS V14.00,2013-01-20 13:45:00,
2013-01-20 05:46:00,4.5,-6.3,30.30,NNE,22,0.0,0.0,60,0.00,,---,0.00,VWS V14.00,2013-01-20 13:46:00,
2013-01-20 05:49:00,4.1,-6.7,30.30,NNE,22,0.0,0.0,60,0.00,,---,0.00,VWS V14.00,2013-01-20 13:49:00,
2013-01-20 05:50:00,4.1,-6.7,30.30,NNE,22,0.0,0.0,60,0.00,,---,0.00,VWS V14.00,2013-01-20 13:50:00,
2013-01-20 05:51:00,4.1,-6.7,30.30,NNE,22,0.0,0.0,60,0.00,,---,0.00,VWS V14.00,2013-01-20 13:51:00,
2013-01-20 05:54:00,4.1,-6.7,30.30,NNE,22,0.0,0.0,60,0.00,,---,0.00,VWS V14.00,2013-01-20 13:54:00,
2013-01-20 05:55:00,4.1,-6.7,30.30,NNE,22,0.0,0.0,60,0.00,,---,0.00,VWS V14.00,2013-01-20 13:55:00,
2013-01-20 05:56:00,4.1,-6.7,30.30,NNE,22,0.0,0.0,60,0.00,,---,0.00,VWS V14.00,2013-01-20 13:56:00,
2013-01-20 05:59:00,4.1,-6.7,30.30,NNE,22,0.0,0.0,60,0.00,,---,0.00,VWS V14.00,2013-01-20 13:59:00,
2013-01-20 06:00:00,4.1,-6.7,30.30,NNE,22,0.0,0.0,60,0.00,,---,0.00,VWS V14.00,2013-01-20 14:00:00,
2013-01-20 06:01:00,4.1,-6.7,30.30,NNE,22,0.0,0.0,60,0.00,,---,0.00,VWS V14.00,2013-01-20 14:01:00,
2013-01-20 06:04:00,4.1,-6.7,30.30,NNE,22,0.0,0.0,60,0.00,,---,0.00,VWS V14.00,2013-01-20 14:04:00,
2013-01-20 06:05:00,4.5,-6.3,30.30,NNE,22,0.0,0.0,60,0.00,,---,0.00,VWS V14.00,2013-01-20 14:05:00,
2013-01-20 06:06:00,4.3,-6.5,30.30,NNE,22,0.0,0.0,60,0.00,,---,0.00,VWS V14.00,2013-01-20 14:06:00,
2013-01-20 06:09:00,4.1,-6.7,30.30,NNE,22,0.0,0.0,60,0.00,,---,0.00,VWS V14.00,2013-01-20 14:09:00,
2013-01-20 06:10:00,4.1,-6.7,30.30,NNE,22,0.0,0.0,60,0.00,,---,0.00,VWS V14.00,2013-01-20 14:10:00,
2013-01-20 06:11:00,4.1,-6.7,30.30,NNE,22,0.0,0.0,60,0.00,,---,0.00,VWS V14.00,2013-01-20 14:11:00,
2013-01-20 06:12:00,4.1,-6.7,30.30,NNE,22,0.0,0.0,60,0.00,,---,0.00,VWS V14.00,2013-01-20 14:12:00,
2013-01-20 06:14:00,4.1,-6.7,30.30,NNW,338,0.0,0.0,60,0.00,,---,0.00,VWS V14.00,2013-01-20 14:14:00,
2013-01-20 06:15:00,4.1,-6.7,30.30,NNW,338,0.0,0.0,60,0.00,,---,0.00,VWS V14.00,2013-01-20 14:15:00,
2013-01-20 06:16:00,4.1,-6.7,30.30,NNW,338,0.0,0.0,60,0.00,,---,0.00,VWS V14.00,2013-01-20 14:16:00,
2013-01-20 06:17:00,4.1,-6.7,30.30,NNW,338,0.0,0.0,60,0.00,,---,0.00,VWS V14.00,2013-01-20 14:17:00,
2013-01-20 06:19:00,4.1,-6.7,30.30,NNW,338,0.0,0.0,60,0.00,,---,0.00,VWS V14.00,2013-01-20 14:19:00,
2013-01-20 06:20:00,3.9,-6.9,30.30,NNW,338,0.0,0.0,60,0.00,,---,0.00,VWS V14.00,2013-01-20 14:20:00,
2013-01-20 06:22:00,4.1,-6.7,30.30,NNW,338,0.0,0.0,60,0.00,,---,0.00,VWS V14.00,2013-01-20 14:22:00,
2013-01-20 06:25:00,4.1,-6.7,30.30,NNW,338,0.0,0.0,60,0.00,,---,0.00,VWS V14.00,2013-01-20 14:25:00,
2013-01-20 06:27:00,4.1,-6.7,30.30,NNW,338,0.0,0.0,60,0.00,,---,0.00,VWS V14.00,2013-01-20 14:27:00,
2013-01-20 06:30:00,4.3,-6.5,30.30,NNW,338,0.0,0.0,60,0.00,,---,0.00,VWS V14.00,2013-01-20 14:30:00,
2013-01-20 06:32:00,4.3,-6.5,30.30,NNW,338,0.0,0.0,60,0.00,,---,0.00,VWS V14.00,2013-01-20 14:32:00,
2013-01-20 06:35:00,4.3,-6.5,30.30,NNW,338,0.0,0.0,60,0.00,,---,0.00,VWS V14.00,2013-01-20 14:35:00,
2013-01-20 06:37:00,4.3,-6.5,30.30,NNW,338,0.0,0.0,60,0.00,,---,0.00,VWS V14.00,2013-01-20 14:37:00,
2013-01-20 06:40:00,4.3,-6.5,30.30,NNW,338,0.0,0.0,60,0.00,,---,0.00,VWS V14.00,2013-01-20 14:40:00,
2013-01-20 06:41:00,4.5,-6.3,30.30,NNW,338,0.0,0.0,60,0.00,,---,0.00,VWS V14.00,2013-01-20 14:41:00,
2013-01-20 06:42:00,4.5,-6.3,30.30,NNW,338,0.0,0.0,60,0.00,,---,0.00,VWS V14.00,2013-01-20 14:42:00,
2013-01-20 06:45:00,4.5,-6.3,30.30,NNW,338,0.0,0.0,60,0.00,,---,0.00,VWS V14.00,2013-01-20 14:45:00,
2013-01-20 06:46:00,4.6,-6.2,30.30,NNW,338,0.0,0.0,60,0.00,,---,0.00,VWS V14.00,2013-01-20 14:46:00,
2013-01-20 06:47:00,4.6,-6.2,30.30,NNW,338,0.0,0.0,60,0.00,,---,0.00,VWS V14.00,2013-01-20 14:47:00,
2013-01-20 06:50:00,4.6,-6.2,30.30,NNW,338,0.0,0.0,60,0.00,,---,0.00,VWS V14.00,2013-01-20 14:50:00,
2013-01-20 06:51:00,4.5,-6.3,30.30,NNW,338,0.0,0.0,60,0.00,,---,0.00,VWS V14.00,2013-01-20 14:51:00,
2013-01-20 06:52:00,4.5,-6.3,30.30,NNW,338,0.0,0.0,60,0.00,,---,0.00,VWS V14.00,2013-01-20 14:52:00,
2013-01-20 06:55:00,4.3,-6.5,30.30,NNW,338,0.0,0.0,60,0.00,,---,0.00,VWS V14.00,2013-01-20 14:55:00,
2013-01-20 06:56:00,4.3,-6.5,30.30,NNW,338,0.0,0.0,60,0.00,,---,0.00,VWS V14.00,2013-01-20 14:56:00,
2013-01-20 06:57:00,4.1,-6.7,30.33,WNW,292,0.0,0.0,60,0.00,,---,0.00,VWS V14.00,2013-01-20 14:57:00,
2013-01-20 07:00:00,4.1,-6.7,30.33,WNW,292,0.0,0.9,60,0.00,,---,0.00,VWS V14.00,2013-01-20 15:00:00,
2013-01-20 07:01:00,4.1,-6.7,30.33,WNW,292,0.0,0.9,60,0.00,,---,0.00,VWS V14.00,2013-01-20 15:01:00,
2013-01-20 07:02:00,3.9,-6.9,30.33,WNW,292,0.0,0.0,60,0.00,,---,0.00,VWS V14.00,2013-01-20 15:02:00,
2013-01-20 07:03:00,3.9,-6.9,30.33,WNW,292,0.0,0.0,60,0.00,,---,0.00,VWS V14.00,2013-01-20 15:03:00,
2013-01-20 07:05:00,3.9,-6.9,30.33,WNW,292,0.0,0.0,60,0.00,,---,0.00,VWS V14.00,2013-01-20 15:05:00,
2013-01-20 07:06:00,3.7,-7.0,30.33,WNW,292,0.0,0.0,60,0.00,,---,0.00,VWS V14.00,2013-01-20 15:06:00,
2013-01-20 07:07:00,3.7,-7.0,30.33,WNW,292,0.0,0.0,60,0.00,,---,0.00,VWS V14.00,2013-01-20 15:07:00,
2013-01-20 07:08:00,3.7,-7.0,30.33,WNW,292,0.0,0.0,60,0.00,,---,0.00,VWS V14.00,2013-01-20 15:08:00,
2013-01-20 07:10:00,3.7,-7.0,30.33,WNW,292,0.0,0.0,60,0.00,,---,0.00,VWS V14.00,2013-01-20 15:10:00,
2013-01-20 07:11:00,3.7,-7.0,30.33,WNW,292,0.0,0.0,60,0.00,,---,0.00,VWS V14.00,2013-01-20 15:11:00,
2013-01-20 07:13:00,3.7,-7.0,30.33,WNW,292,0.0,0.0,60,0.00,,---,0.00,VWS V14.00,2013-01-20 15:13:00,
2013-01-20 07:15:00,3.7,-7.0,30.33,WNW,292,0.0,0.0,60,0.00,,---,0.00,VWS V14.00,2013-01-20 15:15:00,
2013-01-20 07:16:00,3.7,-7.0,30.33,WNW,292,0.0,0.0,60,0.00,,---,0.00,VWS V14.00,2013-01-20 15:16:00,
2013-01-20 07:18:00,3.7,-7.0,30.33,WNW,292,0.0,0.0,60,0.00,,---,0.00,VWS V14.00,2013-01-20 15:18:00,
2013-01-20 07:20:00,3.7,-7.0,30.33,WNW,292,0.0,0.0,60,0.00,,---,0.00,VWS V14.00,2013-01-20 15:20:00,
2013-01-20 07:21:00,3.7,-7.0,30.33,WNW,292,0.0,0.0,60,0.00,,---,0.00,VWS V14.00,2013-01-20 15:21:00,
2013-01-20 07:23:00,4.5,-6.3,30.33,WNW,292,0.0,0.0,60,0.00,,---,0.00,VWS V14.00,2013-01-20 15:23:00,
2013-01-20 07:25:00,5.4,-5.5,30.33,WNW,292,0.0,0.0,60,0.00,,---,0.00,VWS V14.00,2013-01-20 15:25:00,
2013-01-20 07:26:00,5.5,-5.3,30.33,WNW,292,0.0,0.0,60,0.00,,---,0.00,VWS V14.00,2013-01-20 15:26:00,
2013-01-20 07:28:00,5.7,-5.2,30.33,WNW,292,0.0,0.0,60,0.00,,---,0.00,VWS V14.00,2013-01-20 15:28:00,
2013-01-20 07:30:00,5.9,-5.0,30.33,WNW,292,0.0,0.0,60,0.00,,---,0.00,VWS V14.00,2013-01-20 15:30:00,
2013-01-20 07:31:00,6.6,-4.3,30.33,WNW,292,0.0,0.0,60,0.00,,---,0.00,VWS V14.00,2013-01-20 15:31:00,
2013-01-20 07:33:00,7.0,-4.0,30.33,WNW,292,0.0,0.0,60,0.00,,---,0.00,VWS V14.00,2013-01-20 15:33:00,
2013-01-20 07:35:00,7.7,-3.3,30.33,WNW,292,0.0,0.0,60,0.00,,---,0.00,VWS V14.00,2013-01-20 15:35:00,
2013-01-20 07:36:00,7.9,-3.1,30.33,WNW,292,0.0,0.0,60,0.00,,---,0.00,VWS V14.00,2013-01-20 15:36:00,
2013-01-20 07:38:00,8.6,-2.4,30.33,WNW,292,0.0,0.0,60,0.00,,---,0.00,VWS V14.00,2013-01-20 15:38:00,
2013-01-20 07:40:00,9.1,-1.9,30.33,WNW,292,0.0,0.0,60,0.00,,---,0.00,VWS V14.00,2013-01-20 15:40:00,
2013-01-20 07:41:00,9.1,-1.9,30.33,WNW,292,0.0,0.0,60,0.00,,---,0.00,VWS V14.00,2013-01-20 15:41:00,
2013-01-20 07:43:00,10.0,-1.1,30.33,WNW,292,0.0,0.0,60,0.00,,---,0.00,VWS V14.00,2013-01-20 15:43:00,
2013-01-20 07:45:00,11.1,0.0,30.33,WNW,292,0.0,0.0,60,0.00,,---,0.00,VWS V14.00,2013-01-20 15:45:00,
2013-01-20 07:46:00,11.1,0.0,30.33,WNW,292,0.0,0.0,60,0.00,,---,0.00,VWS V14.00,2013-01-20 15:46:00,
2013-01-20 07:47:00,11.1,0.0,30.33,WNW,292,0.0,0.0,60,0.00,,---,0.00,VWS V14.00,2013-01-20 15:47:00,
2013-01-20 07:48:00,11.7,0.5,30.33,WNW,292,0.0,0.0,60,0.00,,---,0.00,VWS V14.00,2013-01-20 15:48:00,
2013-01-20 07:50:00,12.6,1.3,30.33,WNW,292,0.0,0.0,60,0.00,,---,0.00,VWS V14.00,2013-01-20 15:50:00,
2013-01-20 07:51:00,12.6,1.3,30.33,WNW,292,0.0,0.0,60,0.00,,---,0.00,VWS V14.00,2013-01-20 15:51:00,
2013-01-20 07:52:00,13.1,1.8,30.33,WNW,292,0.0,0.0,60,0.00,,---,0.00,VWS V14.00,2013-01-20 15:52:00,
2013-01-20 07:53:00,13.5,2.2,30.33,WNW,292,0.0,0.0,60,0.00,,---,0.00,VWS V14.00,2013-01-20 15:53:00,
2013-01-20 07:55:00,28.6,13.2,30.33,WNW,292,0.0,1.1,52,0.00,,---,0.00,VWS V14.00,2013-01-20 15:55:00,
2013-01-20 07:56:00,13.6,2.3,30.33,WNW,292,0.0,0.0,60,0.00,,---,0.00,VWS V14.00,2013-01-20 15:56:00,
2013-01-20 07:57:00,13.6,2.3,30.33,WNW,292,0.0,0.0,60,0.00,,---,0.00,VWS V14.00,2013-01-20 15:57:00,
2013-01-20 07:58:00,13.6,2.3,30.33,WNW,292,0.0,0.0,60,0.00,,---,0.00,VWS V14.00,2013-01-20 15:58:00,
2013-01-20 08:00:00,15.1,4.8,30.33,WNW,292,0.0,0.0,63,0.00,,---,0.00,VWS V14.00,2013-01-20 16:00:00,
2013-01-20 08:01:00,15.1,4.8,30.33,WNW,292,0.0,0.0,63,0.00,,---,0.00,VWS V14.00,2013-01-20 16:01:00,
2013-01-20 08:02:00,15.1,4.8,30.33,WNW,292,0.0,0.0,63,0.00,,---,0.00,VWS V14.00,2013-01-20 16:02:00,
2013-01-20 08:03:00,16.0,5.6,30.33,WNW,292,0.0,0.0,63,0.00,,---,0.00,VWS V14.00,2013-01-20 16:03:00,
2013-01-20 08:05:00,16.5,6.5,30.33,WNW,292,0.0,0.0,64,0.00,,---,0.00,VWS V14.00,2013-01-20 16:05:00,
2013-01-20 08:06:00,16.9,6.8,30.33,WNW,292,0.0,0.0,64,0.00,,---,0.00,VWS V14.00,2013-01-20 16:06:00,
2013-01-20 08:07:00,17.1,7.0,30.33,WNW,292,0.0,0.0,64,0.00,,---,0.00,VWS V14.00,2013-01-20 16:07:00,
2013-01-20 08:08:00,17.8,7.7,30.33,WNW,292,0.0,0.0,64,0.00,,---,0.00,VWS V14.00,2013-01-20 16:08:00,
2013-01-20 08:09:00,17.8,7.7,30.33,WNW,292,0.0,0.0,64,0.00,,---,0.00,VWS V14.00,2013-01-20 16:09:00,
2013-01-20 08:10:00,18.1,8.0,30.33,WNW,292,0.0,0.0,64,0.00,,---,0.00,VWS V14.00,2013-01-20 16:10:00,
2013-01-20 08:12:00,18.7,8.5,30.33,WNW,292,0.0,0.0,64,0.00,,---,0.00,VWS V14.00,2013-01-20 16:12:00,
2013-01-20 08:13:00,19.4,8.9,30.33,WNW,292,0.0,0.0,63,0.00,,---,0.00,VWS V14.00,2013-01-20 16:13:00,
2013-01-20 08:14:00,19.4,8.9,30.33,WNW,292,0.0,0.0,63,0.00,,---,0.00,VWS V14.00,2013-01-20 16:14:00,
2013-01-20 08:15:00,19.4,8.9,30.33,WNW,292,0.0,0.0,63,0.00,,---,0.00,VWS V14.00,2013-01-20 16:15:00,
2013-01-20 08:17:00,20.5,9.2,30.33,WNW,292,0.0,0.0,61,0.00,,---,0.00,VWS V14.00,2013-01-20 16:17:00,
2013-01-20 08:19:00,20.8,9.5,30.33,WNW,292,0.0,0.0,61,0.00,,---,0.00,VWS V14.00,2013-01-20 16:19:00,
2013-01-20 08:20:00,21.4,10.0,30.33,WNW,292,0.0,0.0,61,0.00,,---,0.00,VWS V14.00,2013-01-20 16:20:00,
2013-01-20 08:22:00,21.9,10.6,30.33,WNW,292,0.0,0.0,61,0.00,,---,0.00,VWS V14.00,2013-01-20 16:22:00,
2013-01-20 08:24:00,21.7,9.6,30.33,WNW,292,0.0,0.0,59,0.00,,---,0.00,VWS V14.00,2013-01-20 16:24:00,
2013-01-20 08:25:00,22.8,11.0,30.33,WNW,292,0.0,0.0,60,0.00,,---,0.00,VWS V14.00,2013-01-20 16:25:00,
2013-01-20 08:27:00,22.8,11.0,30.33,WNW,292,0.0,0.0,60,0.00,,---,0.00,VWS V14.00,2013-01-20 16:27:00,
2013-01-20 08:29:00,23.7,11.9,30.33,WNW,292,0.0,0.0,60,0.00,,---,0.00,VWS V14.00,2013-01-20 16:29:00,
2013-01-20 08:30:00,24.3,11.6,30.33,WNW,292,0.0,0.0,58,0.00,,---,0.00,VWS V14.00,2013-01-20 16:30:00,
2013-01-20 08:32:00,24.4,11.8,30.33,WNW,292,0.0,0.0,58,0.00,,---,0.00,VWS V14.00,2013-01-20 16:32:00,
2013-01-20 08:34:00,25.3,12.2,30.33,WNW,292,0.0,0.0,57,0.00,,---,0.00,VWS V14.00,2013-01-20 16:34:00,
2013-01-20 08:35:00,25.3,12.2,30.33,WNW,292,0.0,0.0,57,0.00,,---,0.00,VWS V14.00,2013-01-20 16:35:00,
2013-01-20 08:37:00,24.8,10.9,30.33,WNW,292,0.0,0.0,55,0.00,,---,0.00,VWS V14.00,2013-01-20 16:37:00,
2013-01-20 08:39:00,24.8,11.3,30.33,WNW,292,0.0,0.0,56,0.00,,---,0.00,VWS V14.00,2013-01-20 16:39:00,
2013-01-20 08:40:00,25.2,11.7,30.33,WNW,292,0.0,0.0,56,0.00,,---,0.00,VWS V14.00,2013-01-20 16:40:00,
2013-01-20 08:42:00,25.3,11.9,30.33,WNW,292,0.0,0.0,56,0.00,,---,0.00,VWS V14.00,2013-01-20 16:42:00,
2013-01-20 08:44:00,25.7,12.2,30.33,WNW,292,0.0,0.0,56,0.00,,---,0.00,VWS V14.00,2013-01-20 16:44:00,
2013-01-20 08:45:00,25.7,12.2,30.33,WNW,292,0.0,0.0,56,0.00,,---,0.00,VWS V14.00,2013-01-20 16:45:00,
2013-01-20 08:47:00,27.0,13.4,30.33,WNW,292,0.0,0.0,56,0.00,,---,0.00,VWS V14.00,2013-01-20 16:47:00,
2013-01-20 08:49:00,28.4,14.3,30.33,WNW,292,0.0,0.0,55,0.00,,---,0.00,VWS V14.00,2013-01-20 16:49:00,
2013-01-20 08:50:00,28.4,14.3,30.33,WNW,292,0.0,0.0,55,0.00,,---,0.00,VWS V14.00,2013-01-20 16:50:00,
2013-01-20 08:52:00,28.6,13.6,30.33,WNW,292,0.0,0.0,53,0.00,,---,0.00,VWS V14.00,2013-01-20 16:52:00,
2013-01-20 08:55:00,28.6,13.2,30.33,WNW,292,0.0,1.1,52,0.00,,---,0.00,VWS V14.00,2013-01-20 16:55:00,
2013-01-20 08:57:00,29.1,13.3,30.33,WNW,292,0.0,0.0,51,0.00,,---,0.00,VWS V14.00,2013-01-20 16:57:00,
2013-01-20 09:00:00,30.4,14.0,30.33,WNW,292,0.0,0.0,50,0.00,,---,0.00,VWS V14.00,2013-01-20 17:00:00,
2013-01-20 09:02:00,30.6,14.1,30.33,WNW,292,0.0,0.0,50,0.00,,---,0.00,VWS V14.00,2013-01-20 17:02:00,
2013-01-20 09:05:00,32.0,15.9,30.33,WNW,292,0.0,0.0,51,0.00,,---,0.00,VWS V14.00,2013-01-20 17:05:00,
2013-01-20 09:07:00,32.5,15.5,30.33,WNW,292,0.0,0.0,49,0.00,,---,0.00,VWS V14.00,2013-01-20 17:07:00,
2013-01-20 09:08:00,32.5,15.5,30.33,WNW,292,0.0,0.0,49,0.00,,---,0.00,VWS V14.00,2013-01-20 17:08:00,
2013-01-20 09:10:00,32.7,13.7,30.33,WNW,292,0.0,0.0,45,0.00,,---,0.00,VWS V14.00,2013-01-20 17:10:00,
2013-01-20 09:12:00,32.2,12.2,30.36,WNW,292,0.0,0.0,43,0.00,,---,0.00,VWS V14.00,2013-01-20 17:12:00,
2013-01-20 09:13:00,32.2,12.2,30.36,WNW,292,0.0,0.0,43,0.00,,---,0.00,VWS V14.00,2013-01-20 17:13:00,
2013-01-20 09:15:00,32.4,13.4,30.36,WNW,292,0.0,0.9,45,0.00,,---,0.00,VWS V14.00,2013-01-20 17:15:00,
2013-01-20 09:17:00,32.5,13.1,30.36,SSW,202,0.0,0.0,44,0.00,,---,0.00,VWS V14.00,2013-01-20 17:17:00,
2013-01-20 09:18:00,32.0,12.6,30.36,SSW,202,0.0,0.0,44,0.00,,---,0.00,VWS V14.00,2013-01-20 17:18:00,
2013-01-20 09:20:00,32.0,12.6,30.36,SSW,202,0.0,0.0,44,0.00,,---,0.00,VWS V14.00,2013-01-20 17:20:00,
2013-01-20 09:22:00,32.0,12.6,30.36,SSW,202,0.0,0.0,44,0.00,,---,0.00,VWS V14.00,2013-01-20 17:22:00,
2013-01-20 09:23:00,32.0,12.6,30.36,SSW,202,0.0,0.0,44,0.00,,---,0.00,VWS V14.00,2013-01-20 17:23:00,
2013-01-20 09:25:00,33.3,13.2,30.36,SSW,202,0.0,0.0,43,0.00,,---,0.00,VWS V14.00,2013-01-20 17:25:00,
2013-01-20 09:26:00,33.3,12.7,30.36,SSW,202,0.0,0.0,42,0.00,,---,0.00,VWS V14.00,2013-01-20 17:26:00,
2013-01-20 09:27:00,33.1,12.5,30.33,SSW,202,0.0,0.0,42,0.00,,---,0.00,VWS V14.00,2013-01-20 17:27:00,
2013-01-20 09:28:00,33.1,12.5,30.33,SSW,202,0.0,0.0,42,0.00,,---,0.00,VWS V14.00,2013-01-20 17:28:00,
2013-01-20 09:30:00,33.1,12.5,30.33,SSW,202,0.0,0.0,42,0.00,,---,0.00,VWS V14.00,2013-01-20 17:30:00,
2013-01-20 09:31:00,32.7,12.2,30.33,SSW,202,1.6,1.6,42,0.00,,---,0.00,VWS V14.00,2013-01-20 17:31:00,
2013-01-20 09:32:00,33.1,13.0,30.33,SSW,202,1.1,2.7,43,0.00,,---,0.00,VWS V14.00,2013-01-20 17:32:00,
2013-01-20 09:33:00,33.1,13.0,30.33,SSW,202,0.9,2.7,43,0.00,,---,0.00,VWS V14.00,2013-01-20 17:33:00,
2013-01-20 09:35:00,33.8,13.1,30.33,SSW,202,0.9,2.7,42,0.00,,---,0.00,VWS V14.00,2013-01-20 17:35:00,
2013-01-20 09:36:00,33.8,12.6,30.33,SSW,202,0.0,0.0,41,0.00,,---,0.00,VWS V14.00,2013-01-20 17:36:00,
2013-01-20 09:37:00,34.3,13.1,30.33,SSW,202,0.0,0.0,41,0.00,,---,0.00,VWS V14.00,2013-01-20 17:37:00,
2013-01-20 09:38:00,34.3,13.1,30.33,SSW,202,0.0,0.0,41,0.00,,---,0.00,VWS V14.00,2013-01-20 17:38:00,
2013-01-20 09:40:00,34.0,12.8,30.33,SSW,202,0.0,0.0,41,0.00,,---,0.00,VWS V14.00,2013-01-20 17:40:00,
2013-01-20 09:41:00,34.0,12.8,30.33,SSW,202,0.0,0.0,41,0.00,,---,0.00,VWS V14.00,2013-01-20 17:41:00,
2013-01-20 09:43:00,34.3,13.1,30.33,SSW,202,0.0,0.0,41,0.00,,---,0.00,VWS V14.00,2013-01-20 17:43:00,
2013-01-20 09:45:00,34.7,13.4,30.33,SSW,202,0.0,0.0,41,0.00,,---,0.00,VWS V14.00,2013-01-20 17:45:00,
2013-01-20 09:47:00,35.8,13.8,30.33,SSW,202,0.0,0.0,40,0.00,,---,0.00,VWS V14.00,2013-01-20 17:47:00,
2013-01-20 09:48:00,35.8,13.8,30.33,SSW,202,0.0,0.0,40,0.00,,---,0.00,VWS V14.00,2013-01-20 17:48:00,
2013-01-20 09:50:00,35.8,13.8,30.33,SE,135,0.0,0.0,40,0.00,,---,0.00,VWS V14.00,2013-01-20 17:50:00,
2013-01-20 09:52:00,35.2,13.4,30.33,SE,135,0.0,0.0,40,0.00,,---,0.00,VWS V14.00,2013-01-20 17:52:00,
2013-01-20 09:53:00,35.2,13.4,30.33,SE,135,0.0,0.0,40,0.00,,---,0.00,VWS V14.00,2013-01-20 17:53:00,
2013-01-20 09:55:00,35.8,13.8,30.33,SE,135,2.9,2.9,40,0.00,,---,0.00,VWS V14.00,2013-01-20 17:55:00,
2013-01-20 09:57:00,35.6,13.7,30.36,SSE,158,2.0,2.9,40,0.00,,---,0.00,VWS V14.00,2013-01-20 17:57:00,
2013-01-20 09:58:00,35.2,13.4,30.36,South,180,2.0,2.9,40,0.00,,---,0.00,VWS V14.00,2013-01-20 17:58:00,
2013-01-20 10:00:00,35.4,13.5,30.36,South,180,1.6,2.9,40,0.00,,---,0.00,VWS V14.00,2013-01-20 18:00:00,
2013-01-20 10:02:00,35.6,13.1,30.36,South,180,0.0,1.6,39,0.00,,---,0.00,VWS V14.00,2013-01-20 18:02:00,
2013-01-20 10:03:00,35.6,13.1,30.36,South,180,0.0,1.6,39,0.00,,---,0.00,VWS V14.00,2013-01-20 18:03:00,
2013-01-20 10:04:00,35.6,13.7,30.36,South,180,1.6,1.6,40,0.00,,---,0.00,VWS V14.00,2013-01-20 18:04:00,
2013-01-20 10:05:00,36.1,14.2,30.36,South,180,0.0,2.0,40,0.00,,---,0.00,VWS V14.00,2013-01-20 18:05:00,
2013-01-20 10:07:00,36.1,14.2,30.36,East,90,1.6,1.6,40,0.00,,---,0.00,VWS V14.00,2013-01-20 18:07:00,
2013-01-20 10:08:00,36.1,14.2,30.36,East,90,0.0,1.6,40,0.00,,---,0.00,VWS V14.00,2013-01-20 18:08:00,
2013-01-20 10:09:00,36.1,14.2,30.36,East,90,0.0,1.6,40,0.00,,---,0.00,VWS V14.00,2013-01-20 18:09:00,
2013-01-20 10:10:00,36.9,14.2,30.36,ENE,68,0.0,1.6,39,0.00,,---,0.00,VWS V14.00,2013-01-20 18:10:00,
2013-01-20 10:12:00,36.9,14.2,30.36,East,90,0.0,2.0,39,0.00,,---,0.00,VWS V14.00,2013-01-20 18:12:00,
2013-01-20 10:13:00,36.9,14.2,30.36,NNE,22,2.7,3.1,39,0.00,,---,0.00,VWS V14.00,2013-01-20 18:13:00,
2013-01-20 10:14:00,37.4,13.5,30.36,NNE,22,2.2,3.1,37,0.00,,---,0.00,VWS V14.00,2013-01-20 18:14:00,
2013-01-20 10:15:00,37.0,12.6,30.36,ENE,68,0.0,3.1,36,0.00,,---,0.00,VWS V14.00,2013-01-20 18:15:00,
2013-01-20 10:17:00,37.0,12.6,30.36,ESE,112,3.6,3.6,36,0.00,,---,0.00,VWS V14.00,2013-01-20 18:17:00,
2013-01-20 10:18:00,37.0,12.6,30.36,ESE,112,3.6,3.6,36,0.00,,---,0.00,VWS V14.00,2013-01-20 18:18:00,
2013-01-20 10:19:00,37.4,12.9,30.36,NNE,22,0.0,3.6,36,0.00,,---,0.00,VWS V14.00,2013-01-20 18:19:00,
2013-01-20 10:20:00,37.9,12.7,30.36,ENE,68,1.6,3.6,35,0.00,,---,0.00,VWS V14.00,2013-01-20 18:20:00,
2013-01-20 10:21:00,37.9,12.7,30.36,ENE,68,1.6,3.6,35,0.00,,---,0.00,VWS V14.00,2013-01-20 18:21:00,
2013-01-20 10:22:00,37.9,12.1,30.36,SE,135,0.0,1.6,34,0.00,,---,0.00,VWS V14.00,2013-01-20 18:22:00,
2013-01-20 10:23:00,37.9,12.1,30.36,SE,135,0.0,1.6,34,0.00,,---,0.00,VWS V14.00,2013-01-20 18:23:00,
2013-01-20 10:24:00,37.2,12.7,30.36,SE,135,3.1,3.1,36,0.00,,---,0.00,VWS V14.00,2013-01-20 18:24:00,
2013-01-20 10:25:00,37.2,12.7,30.36,SE,135,0.0,3.1,36,0.00,,---,0.00,VWS V14.00,2013-01-20 18:25:00,
2013-01-20 10:26:00,37.2,12.7,30.36,SE,135,0.0,3.1,36,0.00,,---,0.00,VWS V14.00,2013-01-20 18:26:00,
2013-01-20 10:28:00,37.0,11.9,30.36,SSE,158,0.0,0.0,35,0.00,,---,0.00,VWS V14.00,2013-01-20 18:28:00,
2013-01-20 10:29:00,37.0,11.9,30.36,South,180,0.9,0.9,35,0.00,,---,0.00,VWS V14.00,2013-01-20 18:29:00,
2013-01-20 10:30:00,37.0,11.9,30.36,South,180,1.6,1.6,35,0.00,,---,0.00,VWS V14.00,2013-01-20 18:30:00,
2013-01-20 10:31:00,37.0,11.9,30.36,South,180,1.6,1.6,35,0.00,,---,0.00,VWS V14.00,2013-01-20 18:31:00,
2013-01-20 10:33:00,38.1,12.2,30.36,East,90,0.9,1.6,34,0.00,,---,0.00,VWS V14.00,2013-01-20 18:33:00,
2013-01-20 10:34:00,38.1,12.2,30.36,SE,135,3.1,3.1,34,0.00,,---,0.00,VWS V14.00,2013-01-20 18:34:00,
2013-01-20 10:35:00,41.2,11.4,30.30,ESE,112,0.0,3.8,29,0.00,,---,0.00,VWS V14.00,2013-01-20 18:35:00,
2013-01-20 10:36:00,37.9,11.4,30.36,ESE,112,1.3,3.6,33,0.00,,---,0.00,VWS V14.00,2013-01-20 18:36:00,
2013-01-20 10:38:00,38.8,12.9,30.36,SE,135,0.0,3.6,34,0.00,,---,0.00,VWS V14.00,2013-01-20 18:38:00,
2013-01-20 10:39:00,39.0,13.0,30.36,SE,135,1.1,3.6,34,0.00,,---,0.00,VWS V14.00,2013-01-20 18:39:00,
2013-01-20 10:40:00,38.8,12.9,30.36,SSE,158,0.0,3.6,34,0.00,,---,0.00,VWS V14.00,2013-01-20 18:40:00,
2013-01-20 10:41:00,38.8,12.9,30.36,SSE,158,0.0,0.0,34,0.00,,---,0.00,VWS V14.00,2013-01-20 18:41:00,
2013-01-20 10:43:00,38.8,12.9,30.36,SSE,158,0.0,0.0,34,0.00,,---,0.00,VWS V14.00,2013-01-20 18:43:00,
2013-01-20 10:44:00,39.4,12.0,30.33,South,180,0.0,0.0,32,0.00,,---,0.00,VWS V14.00,2013-01-20 18:44:00,
2013-01-20 10:45:00,39.4,12.7,30.33,South,180,2.0,2.0,33,0.00,,---,0.00,VWS V14.00,2013-01-20 18:45:00,
2013-01-20 10:46:00,39.4,12.7,30.33,South,180,1.6,2.0,33,0.00,,---,0.00,VWS V14.00,2013-01-20 18:46:00,
2013-01-20 10:48:00,39.7,13.0,30.33,SSW,202,0.0,2.0,33,0.00,,---,0.00,VWS V14.00,2013-01-20 18:48:00,
2013-01-20 10:50:00,39.9,13.2,30.33,South,180,2.5,2.5,33,0.00,,---,0.00,VWS V14.00,2013-01-20 18:50:00,
2013-01-20 10:51:00,39.9,12.5,30.33,South,180,2.9,4.0,32,0.00,,---,0.00,VWS V14.00,2013-01-20 18:51:00,
2013-01-20 10:53:00,39.7,12.3,30.33,South,180,2.7,4.0,32,0.00,,---,0.00,VWS V14.00,2013-01-20 18:53:00,
2013-01-20 10:55:00,39.6,12.1,30.33,SW,225,0.9,4.0,32,0.00,,---,0.00,VWS V14.00,2013-01-20 18:55:00,
2013-01-20 10:56:00,39.6,12.1,30.33,SW,225,0.9,4.0,32,0.00,,---,0.00,VWS V14.00,2013-01-20 18:56:00,
2013-01-20 10:58:00,39.9,12.5,30.33,SSW,202,0.0,0.9,32,0.00,,---,0.00,VWS V14.00,2013-01-20 18:58:00,
2013-01-20 11:00:00,39.9,11.8,30.33,SE,135,0.0,2.9,31,0.00,,---,0.00,VWS V14.00,2013-01-20 19:00:00,
2013-01-20 11:01:00,40.5,12.2,30.33,SE,135,0.0,0.0,31,0.00,,---,0.00,VWS V14.00,2013-01-20 19:01:00,
2013-01-20 11:03:00,40.6,12.4,30.33,South,180,2.0,2.2,31,0.00,,---,0.00,VWS V14.00,2013-01-20 19:03:00,
2013-01-20 11:05:00,40.3,12.1,30.33,South,180,0.0,2.2,31,0.00,,---,0.00,VWS V14.00,2013-01-20 19:05:00,
2013-01-20 11:06:00,39.7,11.6,30.33,South,180,0.0,0.0,31,0.00,,---,0.00,VWS V14.00,2013-01-20 19:06:00,
2013-01-20 11:08:00,41.2,12.9,30.33,ENE,68,1.3,1.3,31,0.00,,---,0.00,VWS V14.00,2013-01-20 19:08:00,
2013-01-20 11:10:00,41.7,12.6,30.33,NNE,22,2.5,3.8,30,0.00,,---,0.00,VWS V14.00,2013-01-20 19:10:00,
2013-01-20 11:11:00,41.7,12.6,30.33,NNE,22,2.5,3.8,30,0.00,,---,0.00,VWS V14.00,2013-01-20 19:11:00,
2013-01-20 11:13:00,42.1,12.9,30.30,NNE,22,1.3,2.9,30,0.00,,---,0.00,VWS V14.00,2013-01-20 19:13:00,
2013-01-20 11:14:00,42.1,12.9,30.30,NNE,22,1.3,2.9,30,0.00,,---,0.00,VWS V14.00,2013-01-20 19:14:00,
2013-01-20 11:15:00,42.3,13.1,30.30,SE,135,0.0,2.9,30,0.00,,---,0.00,VWS V14.00,2013-01-20 19:15:00,
2013-01-20 11:16:00,42.1,12.9,30.30,SE,135,0.0,1.3,30,0.00,,---,0.00,VWS V14.00,2013-01-20 19:16:00,
2013-01-20 11:19:00,42.8,12.8,30.30,SE,135,3.6,3.6,29,0.00,,---,0.00,VWS V14.00,2013-01-20 19:19:00,
2013-01-20 11:20:00,42.4,13.2,30.30,East,90,3.1,3.6,30,0.00,,---,0.00,VWS V14.00,2013-01-20 19:20:00,
2013-01-20 11:21:00,41.5,11.7,30.30,ENE,68,2.7,3.1,29,0.00,,---,0.00,VWS V14.00,2013-01-20 19:21:00,
2013-01-20 11:24:00,42.1,12.1,30.30,NNE,22,1.6,3.4,29,0.00,,---,0.00,VWS V14.00,2013-01-20 19:24:00,
2013-01-20 11:25:00,41.9,12.0,30.30,NNE,22,2.9,3.4,29,0.00,,---,0.00,VWS V14.00,2013-01-20 19:25:00,
2013-01-20 11:26:00,41.7,11.8,30.30,NE,45,4.3,4.9,29,0.00,,---,0.00,VWS V14.00,2013-01-20 19:26:00,
2013-01-20 11:29:00,41.9,12.0,30.30,NE,45,4.3,4.9,29,0.00,,---,0.00,VWS V14.00,2013-01-20 19:29:00,
2013-01-20 11:30:00,41.9,12.0,30.30,NE,45,3.6,4.9,29,0.00,,---,0.00,VWS V14.00,2013-01-20 19:30:00,
2013-01-20 11:31:00,41.9,12.0,30.30,North,0,3.1,3.6,29,0.00,,---,0.00,VWS V14.00,2013-01-20 19:31:00,
2013-01-20 11:34:00,41.5,11.7,30.30,SE,135,3.8,3.8,29,0.00,,---,0.00,VWS V14.00,2013-01-20 19:34:00,
2013-01-20 11:35:00,41.4,11.5,30.30,East,90,0.0,3.8,29,0.00,,---,0.00,VWS V14.00,2013-01-20 19:35:00,
2013-01-20 11:37:00,41.2,11.4,30.30,East,90,4.0,4.3,29,0.00,,---,0.00,VWS V14.00,2013-01-20 19:37:00,
2013-01-20 11:39:00,42.3,12.3,30.30,East,90,0.0,4.3,29,0.00,,---,0.00,VWS V14.00,2013-01-20 19:39:00,
2013-01-20 11:40:00,42.3,12.3,30.30,SE,135,0.0,4.3,29,0.00,,---,0.00,VWS V14.00,2013-01-20 19:40:00,
2013-01-20 11:42:00,42.8,12.8,30.30,NNW,338,1.6,3.1,29,0.00,,---,0.00,VWS V14.00,2013-01-20 19:42:00,
2013-01-20 11:44:00,42.6,12.6,30.30,NE,45,2.9,3.1,29,0.00,,---,0.00,VWS V14.00,2013-01-20 19:44:00,
2013-01-20 11:45:00,43.0,12.9,30.30,NNE,22,0.0,3.1,29,0.00,,---,0.00,VWS V14.00,2013-01-20 19:45:00,
2013-01-20 11:47:00,43.7,13.5,30.30,NE,45,1.6,2.5,29,0.00,,---,0.00,VWS V14.00,2013-01-20 19:47:00,
2013-01-20 11:49:00,43.5,13.4,30.30,East,90,2.7,2.7,29,0.00,,---,0.00,VWS V14.00,2013-01-20 19:49:00,
2013-01-20 11:50:00,43.7,13.5,30.30,ENE,68,3.1,4.0,29,0.00,,---,0.00,VWS V14.00,2013-01-20 19:50:00,
2013-01-20 11:52:00,43.7,12.8,30.30,SE,135,2.2,3.1,28,0.00,,---,0.00,VWS V14.00,2013-01-20 19:52:00,
2013-01-20 11:54:00,44.1,13.9,30.30,SSE,158,0.0,3.1,29,0.00,,---,0.00,VWS V14.00,2013-01-20 19:54:00,
2013-01-20 11:55:00,44.2,14.0,30.30,NNE,22,0.0,3.1,29,0.00,,---,0.00,VWS V14.00,2013-01-20 19:55:00,
2013-01-20 11:57:00,44.8,13.7,30.30,NNE,22,0.0,0.0,28,0.00,,---,0.00,VWS V14.00,2013-01-20 19:57:00,
2013-01-20 11:59:00,45.7,14.5,30.27,NNW,338,0.0,0.9,28,0.00,,---,0.00,VWS V14.00,2013-01-20 19:59:00,
2013-01-20 12:00:00,46.0,14.8,30.27,NNW,338,0.0,0.9,28,0.00,,---,0.00,VWS V14.00,2013-01-20 20:00:00,
2013-01-20 12:02:00,46.4,14.2,30.27,East,90,2.5,2.5,27,0.00,,---,0.00,VWS V14.00,2013-01-20 20:02:00,
2013-01-20 12:04:00,46.4,14.2,30.27,North,0,1.3,2.5,27,0.00,,---,0.00,VWS V14.00,2013-01-20 20:04:00,
2013-01-20 12:05:00,45.7,14.5,30.27,East,90,0.0,2.5,28,0.00,,---,0.00,VWS V14.00,2013-01-20 20:05:00,
2013-01-20 12:06:00,45.7,14.5,30.27,SE,135,2.2,2.2,28,0.00,,---,0.00,VWS V14.00,2013-01-20 20:06:00,
2013-01-20 12:08:00,45.3,14.1,30.27,SE,135,3.4,3.4,28,0.00,,---,0.00,VWS V14.00,2013-01-20 20:08:00,
2013-01-20 12:09:00,45.1,14.0,30.27,ENE,68,2.0,3.4,28,0.00,,---,0.00,VWS V14.00,2013-01-20 20:09:00,
2013-01-20 12:10:00,45.1,14.0,30.27,ENE,68,2.0,3.4,28,0.00,,---,0.00,VWS V14.00,2013-01-20 20:10:00,
2013-01-20 12:11:00,45.9,14.6,30.27,NE,45,0.0,0.0,28,0.00,,---,0.00,VWS V14.00,2013-01-20 20:11:00,
2013-01-20 12:13:00,46.6,14.4,30.30,North,0,1.1,2.7,27,0.00,,---,0.00,VWS V14.00,2013-01-20 20:13:00,
2013-01-20 12:14:00,46.6,14.4,30.30,North,0,1.6,2.7,27,0.00,,---,0.00,VWS V14.00,2013-01-20 20:14:00,
2013-01-20 12:15:00,46.6,14.4,30.30,North,0,1.6,2.7,27,0.00,,---,0.00,VWS V14.00,2013-01-20 20:15:00,
2013-01-20 12:16:00,46.6,14.4,30.30,North,0,0.0,0.0,27,0.00,,---,0.00,VWS V14.00,2013-01-20 20:16:00,
2013-01-20 12:18:00,47.1,14.9,30.30,North,0,0.0,0.0,27,0.00,,---,0.00,VWS V14.00,2013-01-20 20:18:00,
2013-01-20 12:19:00,48.0,15.6,30.30,North,0,0.0,0.0,27,0.00,,---,0.00,VWS V14.00,2013-01-20 20:19:00,
2013-01-20 12:20:00,48.0,15.6,30.30,NNW,338,0.0,0.0,27,0.00,,---,0.00,VWS V14.00,2013-01-20 20:20:00,
2013-01-20 12:21:00,47.7,15.3,30.30,North,0,0.0,0.0,27,0.00,,---,0.00,VWS V14.00,2013-01-20 20:21:00,
2013-01-20 12:23:00,47.1,14.9,30.30,NNW,338,0.0,3.1,27,0.00,,---,0.00,VWS V14.00,2013-01-20 20:23:00,
2013-01-20 12:25:00,47.1,14.9,30.30,North,0,0.0,3.1,27,0.00,,---,0.00,VWS V14.00,2013-01-20 20:25:00,
2013-01-20 12:26:00,47.3,15.0,30.30,SSW,202,2.0,2.0,27,0.00,,---,0.00,VWS V14.00,2013-01-20 20:26:00,
2013-01-20 12:28:00,46.9,14.7,30.30,SSW,202,1.1,2.0,27,0.00,,---,0.00,VWS V14.00,2013-01-20 20:28:00,
2013-01-20 12:30:00,46.9,14.7,30.30,SSW,202,0.0,2.0,27,0.00,,---,0.00,VWS V14.00,2013-01-20 20:30:00,
2013-01-20 12:31:00,47.5,15.2,30.30,SE,135,3.8,3.8,27,0.00,,---,0.00,VWS V14.00,2013-01-20 20:31:00,
2013-01-20 12:34:00,47.1,12.2,30.30,ESE,112,0.0,5.6,24,0.00,,---,0.00,VWS V14.00,2013-01-20 20:34:00,
2013-01-20 12:35:00,47.3,12.4,30.30,ESE,112,3.4,5.6,24,0.00,,---,0.00,VWS V14.00,2013-01-20 20:35:00,
2013-01-20 12:36:00,47.3,12.4,30.30,SE,135,3.4,3.4,24,0.00,,---,0.00,VWS V14.00,2013-01-20 20:36:00,
2013-01-20 12:39:00,46.4,11.6,30.30,SE,135,3.6,3.6,24,0.00,,---,0.00,VWS V14.00,2013-01-20 20:39:00,
2013-01-20 12:40:00,46.8,11.9,30.30,South,180,0.0,3.6,24,0.00,,---,0.00,VWS V14.00,2013-01-20 20:40:00,
2013-01-20 12:41:00,46.8,11.9,30.30,South,180,0.0,0.0,24,0.00,,---,0.00,VWS V14.00,2013-01-20 20:41:00,
2013-01-20 12:44:00,46.8,11.9,30.27,East,90,0.0,3.6,24,0.00,,---,0.00,VWS V14.00,2013-01-20 20:44:00,
2013-01-20 12:45:00,46.8,11.9,30.27,NNE,22,1.6,3.6,24,0.00,,---,0.00,VWS V14.00,2013-01-20 20:45:00,
2013-01-20 12:46:00,46.8,11.9,30.27,NNE,22,0.0,1.6,24,0.00,,---,0.00,VWS V14.00,2013-01-20 20:46:00,
2013-01-20 12:47:00,47.7,12.7,30.27,NNE,22,2.5,3.4,24,0.00,,---,0.00,VWS V14.00,2013-01-20 20:47:00,
2013-01-20 12:49:00,48.0,13.0,30.27,East,90,0.0,4.3,24,0.00,,---,0.00,VWS V14.00,2013-01-20 20:49:00,
2013-01-20 12:50:00,48.2,13.1,30.27,SE,135,3.4,4.3,24,0.00,,---,0.00,VWS V14.00,2013-01-20 20:50:00,
2013-01-20 12:51:00,48.2,13.1,30.27,SE,135,3.4,3.4,24,0.00,,---,0.00,VWS V14.00,2013-01-20 20:51:00,
2013-01-20 12:52:00,48.2,13.1,30.27,SE,135,2.0,3.4,24,0.00,,---,0.00,VWS V14.00,2013-01-20 20:52:00,
2013-01-20 12:55:00,46.8,11.9,30.27,ENE,68,2.5,3.6,24,0.00,,---,0.00,VWS V14.00,2013-01-20 20:55:00,
2013-01-20 12:57:00,47.3,12.4,30.27,SE,135,1.3,2.7,24,0.00,,---,0.00,VWS V14.00,2013-01-20 20:57:00,
2013-01-20 12:58:00,47.3,12.4,30.27,SE,135,0.0,2.7,24,0.00,,---,0.00,VWS V14.00,2013-01-20 20:58:00,
2013-01-20 13:00:00,47.8,12.8,30.27,SE,135,2.5,4.0,24,0.00,,---,0.00,VWS V14.00,2013-01-20 21:00:00,
2013-01-20 13:02:00,47.7,12.7,30.27,East,90,3.8,4.3,24,0.00,,---,0.00,VWS V14.00,2013-01-20 21:02:00,
2013-01-20 13:03:00,47.7,12.7,30.27,East,90,3.8,4.3,24,0.00,,---,0.00,VWS V14.00,2013-01-20 21:03:00,
2013-01-20 13:05:00,46.8,11.9,30.27,SE,135,0.0,4.3,24,0.00,,---,0.00,VWS V14.00,2013-01-20 21:05:00,
2013-01-20 13:07:00,47.5,12.5,30.27,East,90,2.7,2.7,24,0.00,,---,0.00,VWS V14.00,2013-01-20 21:07:00,
2013-01-20 13:08:00,47.5,12.5,30.27,East,90,2.7,2.7,24,0.00,,---,0.00,VWS V14.00,2013-01-20 21:08:00,
2013-01-20 13:10:00,48.4,13.3,30.27,ENE,68,0.0,2.9,24,0.00,,---,0.00,VWS V14.00,2013-01-20 21:10:00,
2013-01-20 13:12:00,48.6,13.4,30.27,ENE,68,2.7,3.4,24,0.00,,---,0.00,VWS V14.00,2013-01-20 21:12:00,
2013-01-20 13:13:00,48.4,10.3,30.27,NE,45,2.7,4.3,21,0.00,,---,0.00,VWS V14.00,2013-01-20 21:13:00,
2013-01-20 13:15:00,48.4,10.3,30.27,ENE,68,2.0,4.3,21,0.00,,---,0.00,VWS V14.00,2013-01-20 21:15:00,
2013-01-20 13:16:00,48.4,10.3,30.27,ENE,68,2.0,4.3,21,0.00,,---,0.00,VWS V14.00,2013-01-20 21:16:00,
2013-01-20 13:17:00,48.6,10.4,30.27,NNE,22,1.3,2.5,21,0.00,,---,0.00,VWS V14.00,2013-01-20 21:17:00,
2013-01-20 13:18:00,48.6,10.4,30.27,East,90,2.9,2.9,21,0.00,,---,0.00,VWS V14.00,2013-01-20 21:18:00,
2013-01-20 13:19:00,49.1,10.9,30.27,NNE,22,0.0,0.0,21,0.00,,---,0.00,VWS V14.00,2013-01-20 21:19:00,
2013-01-20 13:20:00,48.0,11.0,30.27,NE,45,2.9,4.0,22,0.00,,---,0.00,VWS V14.00,2013-01-20 21:20:00,
2013-01-20 13:21:00,48.0,11.0,30.27,ESE,112,1.1,4.0,22,0.00,,---,0.00,VWS V14.00,2013-01-20 21:21:00,
2013-01-20 13:22:00,48.2,10.1,30.27,NNE,22,3.4,3.6,21,0.00,,---,0.00,VWS V14.00,2013-01-20 21:22:00,
2013-01-20 13:23:00,48.6,10.4,30.27,NNE,22,2.5,3.6,21,0.00,,---,0.00,VWS V14.00,2013-01-20 21:23:00,
2013-01-20 13:24:00,48.6,10.4,30.27,NNE,22,2.5,3.6,21,0.00,,---,0.00,VWS V14.00,2013-01-20 21:24:00,
2013-01-20 13:25:00,48.4,10.3,30.27,NE,45,0.0,3.6,21,0.00,,---,0.00,VWS V14.00,2013-01-20 21:25:00,
2013-01-20 13:26:00,48.6,10.4,30.27,NE,45,0.0,0.0,21,0.00,,---,0.00,VWS V14.00,2013-01-20 21:26:00,
2013-01-20 13:27:00,48.7,10.6,30.27,NE,45,4.0,4.9,21,0.00,,---,0.00,VWS V14.00,2013-01-20 21:27:00,
2013-01-20 13:28:00,48.2,10.1,30.27,ENE,68,4.0,4.9,21,0.00,,---,0.00,VWS V14.00,2013-01-20 21:28:00,
2013-01-20 13:29:00,48.2,10.1,30.27,NNE,22,4.0,4.9,21,0.00,,---,0.00,VWS V14.00,2013-01-20 21:29:00,
2013-01-20 13:30:00,48.2,10.1,30.27,ENE,68,1.6,4.9,21,0.00,,---,0.00,VWS V14.00,2013-01-20 21:30:00,
2013-01-20 13:31:00,48.2,10.1,30.27,East,90,3.1,3.1,21,0.00,,---,0.00,VWS V14.00,2013-01-20 21:31:00,
2013-01-20 13:33:00,48.2,10.1,30.27,NNE,22,2.2,3.8,21,0.00,,---,0.00,VWS V14.00,2013-01-20 21:33:00,
2013-01-20 13:34:00,48.4,10.3,30.27,East,90,2.0,3.8,21,0.00,,---,0.00,VWS V14.00,2013-01-20 21:34:00,
2013-01-20 13:35:00,48.0,11.0,30.27,NNE,22,3.1,3.8,22,0.00,,---,0.00,VWS V14.00,2013-01-20 21:35:00,
2013-01-20 13:36:00,48.0,11.0,30.27,NNE,22,3.1,3.1,22,0.00,,---,0.00,VWS V14.00,2013-01-20 21:36:00,
2013-01-20 13:38:00,47.5,10.6,30.27,East,90,3.4,4.9,22,0.00,,---,0.00,VWS V14.00,2013-01-20 21:38:00,
2013-01-20 13:39:00,47.8,10.9,30.27,ENE,68,3.4,4.9,22,0.00,,---,0.00,VWS V14.00,2013-01-20 21:39:00,
2013-01-20 13:40:00,47.7,10.7,30.27,East,90,2.9,4.9,22,0.00,,---,0.00,VWS V14.00,2013-01-20 21:40:00,
2013-01-20 13:41:00,47.7,10.7,30.27,SE,135,2.5,2.9,22,0.00,,---,0.00,VWS V14.00,2013-01-20 21:41:00,
2013-01-20 13:43:00,47.5,10.6,30.27,SE,135,2.9,3.4,22,0.00,,---,0.00,VWS V14.00,2013-01-20 21:43:00,
2013-01-20 13:44:00,47.5,10.6,30.27,SE,135,2.9,3.4,22,0.00,,---,0.00,VWS V14.00,2013-01-20 21:44:00,
2013-01-20 13:45:00,46.8,9.9,30.27,NE,45,3.8,3.8,22,0.00,,---,0.00,VWS V14.00,2013-01-20 21:45:00,
2013-01-20 13:46:00,46.9,10.1,30.27,ENE,68,3.1,5.6,22,0.00,,---,0.00,VWS V14.00,2013-01-20 21:46:00,
2013-01-20 13:48:00,46.9,10.1,30.27,NNE,22,0.0,5.6,22,0.00,,---,0.00,VWS V14.00,2013-01-20 21:48:00,
2013-01-20 13:49:00,48.0,11.0,30.27,SE,135,3.1,5.6,22,0.00,,---,0.00,VWS V14.00,2013-01-20 21:49:00,
2013-01-20 13:50:00,47.3,10.4,30.27,East,90,3.1,5.6,22,0.00,,---,0.00,VWS V14.00,2013-01-20 21:50:00,
2013-01-20 13:51:00,47.3,10.4,30.27,ESE,112,2.7,3.1,22,0.00,,---,0.00,VWS V14.00,2013-01-20 21:51:00,
2013-01-20 13:54:00,47.3,10.4,30.27,ESE,112,0.0,3.4,22,0.00,,---,0.00,VWS V14.00,2013-01-20 21:54:00,
2013-01-20 13:55:00,46.9,10.1,30.27,East,90,3.8,3.8,22,0.00,,---,0.00,VWS V14.00,2013-01-20 21:55:00,
2013-01-20 13:57:00,47.3,10.4,30.27,ENE,68,2.5,3.8,22,0.00,,---,0.00,VWS V14.00,2013-01-20 21:57:00,
2013-01-20 13:59:00,48.0,11.0,30.24,East,90,3.4,3.8,22,0.00,,---,0.00,VWS V14.00,2013-01-20 21:59:00,
2013-01-20 14:00:00,48.0,11.0,30.24,ENE,68,0.0,3.8,22,0.00,,---,0.00,VWS V14.00,2013-01-20 22:00:00,
2013-01-20 14:02:00,48.7,10.6,30.24,NNE,22,2.5,2.9,21,0.00,,---,0.00,VWS V14.00,2013-01-20 22:02:00,
2013-01-20 14:04:00,48.7,10.6,30.24,ENE,68,3.4,3.4,21,0.00,,---,0.00,VWS V14.00,2013-01-20 22:04:00,
2013-01-20 14:05:00,48.7,10.6,30.24,ESE,112,2.9,3.6,21,0.00,,---,0.00,VWS V14.00,2013-01-20 22:05:00,
2013-01-20 14:07:00,48.7,10.6,30.24,East,90,3.1,3.6,21,0.00,,---,0.00,VWS V14.00,2013-01-20 22:07:00,
2013-01-20 14:09:00,48.4,10.3,30.24,SE,135,3.6,3.6,21,0.00,,---,0.00,VWS V14.00,2013-01-20 22:09:00,
2013-01-20 14:10:00,48.0,11.0,30.24,SE,135,2.9,4.7,22,0.00,,---,0.00,VWS V14.00,2013-01-20 22:10:00,
2013-01-20 14:12:00,48.4,10.3,30.27,NNE,22,1.6,2.9,21,0.00,,---,0.00,VWS V14.00,2013-01-20 22:12:00,
2013-01-20 14:14:00,48.7,10.6,30.27,NNE,22,0.0,2.9,21,0.00,,---,0.00,VWS V14.00,2013-01-20 22:14:00,
2013-01-20 14:15:00,48.9,10.7,30.27,NNE,22,0.0,2.9,21,0.00,,---,0.00,VWS V14.00,2013-01-20 22:15:00,
2013-01-20 14:17:00,49.3,11.0,30.27,NNE,22,2.0,4.0,21,0.00,,---,0.00,VWS V14.00,2013-01-20 22:17:00,
2013-01-20 14:19:00,49.1,10.9,30.27,NNE,22,0.0,0.0,21,0.00,,---,0.00,VWS V14.00,2013-01-20 22:19:00,
2013-01-20 14:20:00,49.6,11.3,30.27,South,180,1.6,1.6,21,0.00,,---,0.00,VWS V14.00,2013-01-20 22:20:00,
2013-01-20 14:21:00,49.6,11.3,30.27,South,180,1.6,1.6,21,0.00,,---,0.00,VWS V14.00,2013-01-20 22:21:00,
2013-01-20 14:22:00,49.3,11.0,30.27,East,90,3.6,3.6,21,0.00,,---,0.00,VWS V14.00,2013-01-20 22:22:00,
2013-01-20 14:25:00,48.7,10.6,30.27,East,90,3.6,4.9,21,0.00,,---,0.00,VWS V14.00,2013-01-20 22:25:00,
2013-01-20 14:26:00,48.7,10.6,30.27,East,90,3.6,4.9,21,0.00,,---,0.00,VWS V14.00,2013-01-20 22:26:00,
2013-01-20 14:28:00,48.0,11.0,30.27,East,90,2.2,3.1,22,0.00,,---,0.00,VWS V14.00,2013-01-20 22:28:00,
2013-01-20 14:30:00,48.2,10.1,30.27,SE,135,0.0,3.1,21,0.00,,---,0.00,VWS V14.00,2013-01-20 22:30:00,
2013-01-20 14:31:00,48.2,10.1,30.27,SE,135,0.0,0.0,21,0.00,,---,0.00,VWS V14.00,2013-01-20 22:31:00,
2013-01-20 14:33:00,48.7,10.6,30.27,NNE,22,4.0,4.0,21,0.00,,---,0.00,VWS V14.00,2013-01-20 22:33:00,
2013-01-20 14:36:00,48.7,10.6,30.27,NNE,22,4.3,4.3,21,0.00,,---,0.00,VWS V14.00,2013-01-20 22:36:00,
2013-01-20 14:38:00,48.0,11.0,30.27,NE,45,2.7,4.3,22,0.00,,---,0.00,VWS V14.00,2013-01-20 22:38:00,
2013-01-20 14:40:00,48.2,10.1,30.27,ENE,68,3.8,4.3,21,0.00,,---,0.00,VWS V14.00,2013-01-20 22:40:00,
2013-01-20 14:41:00,48.0,11.0,30.27,ENE,68,2.7,3.8,22,0.00,,---,0.00,VWS V14.00,2013-01-20 22:41:00,
2013-01-20 14:43:00,48.0,11.0,30.24,ENE,68,2.9,3.8,22,0.00,,---,0.00,VWS V14.00,2013-01-20 22:43:00,
2013-01-20 14:45:00,48.4,10.3,30.24,NNE,22,0.0,3.8,21,0.00,,---,0.00,VWS V14.00,2013-01-20 22:45:00,
2013-01-20 14:46:00,48.6,10.4,30.24,NE,45,3.1,3.1,21,0.00,,---,0.00,VWS V14.00,2013-01-20 22:46:00,
2013-01-20 14:47:00,48.6,10.4,30.24,NE,45,3.1,3.1,21,0.00,,---,0.00,VWS V14.00,2013-01-20 22:47:00,
2013-01-20 14:49:00,48.6,10.4,30.24,NE,45,3.1,3.1,21,0.00,,---,0.00,VWS V14.00,2013-01-20 22:49:00,
2013-01-20 14:50:00,48.6,10.4,30.24,East,90,2.5,3.1,21,0.00,,---,0.00,VWS V14.00,2013-01-20 22:50:00,
2013-01-20 14:51:00,48.6,10.4,30.24,ENE,68,3.6,3.6,21,0.00,,---,0.00,VWS V14.00,2013-01-20 22:51:00,
2013-01-20 14:52:00,48.6,10.4,30.24,ENE,68,3.6,3.6,21,0.00,,---,0.00,VWS V14.00,2013-01-20 22:52:00,
2013-01-20 14:54:00,47.5,10.6,30.24,NE,45,0.0,4.0,22,0.00,,---,0.00,VWS V14.00,2013-01-20 22:54:00,
2013-01-20 14:55:00,47.7,10.7,30.24,East,90,2.2,4.0,22,0.00,,---,0.00,VWS V14.00,2013-01-20 22:55:00,
2013-01-20 14:57:00,47.8,10.9,30.24,NE,45,3.1,4.0,22,0.00,,---,0.00,VWS V14.00,2013-01-20 22:57:00,
2013-01-20 15:00:00,47.7,10.7,30.24,NNE,22,3.4,4.3,22,0.00,,---,0.00,VWS V14.00,2013-01-20 23:00:00,
2013-01-20 15:02:00,47.5,10.6,30.24,ENE,68,1.6,3.4,22,0.00,,---,0.00,VWS V14.00,2013-01-20 23:02:00,
2013-01-20 15:03:00,47.5,10.6,30.24,NE,45,0.0,3.4,22,0.00,,---,0.00,VWS V14.00,2013-01-20 23:03:00,
2013-01-20 15:05:00,47.5,10.6,30.24,East,90,3.6,4.0,22,0.00,,---,0.00,VWS V14.00,2013-01-20 23:05:00,
2013-01-20 15:07:00,47.1,10.2,30.24,NE,45,2.7,3.4,22,0.00,,---,0.00,VWS V14.00,2013-01-20 23:07:00,
2013-01-20 15:08:00,47.1,10.2,30.24,East,90,2.7,3.4,22,0.00,,---,0.00,VWS V14.00,2013-01-20 23:08:00,
2013-01-20 15:09:00,47.3,10.4,30.24,NNE,22,0.0,3.4,22,0.00,,---,0.00,VWS V14.00,2013-01-20 23:09:00,
2013-01-20 15:10:00,47.3,10.4,30.24,NNE,22,1.3,3.4,22,0.00,,---,0.00,VWS V14.00,2013-01-20 23:10:00,
2013-01-20 15:12:00,47.7,10.7,30.24,East,90,2.2,2.2,22,0.00,,---,0.00,VWS V14.00,2013-01-20 23:12:00,
2013-01-20 15:13:00,47.1,10.2,30.27,ESE,112,3.4,3.8,22,0.00,,---,0.00,VWS V14.00,2013-01-20 23:13:00,
2013-01-20 15:14:00,47.1,10.2,30.27,East,90,2.0,3.8,22,0.00,,---,0.00,VWS V14.00,2013-01-20 23:14:00,
2013-01-20 15:15:00,46.6,9.8,30.27,East,90,2.5,3.8,22,0.00,,---,0.00,VWS V14.00,2013-01-20 23:15:00,
2013-01-20 15:18:00,46.8,9.9,30.27,East,90,4.3,4.9,22,0.00,,---,0.00,VWS V14.00,2013-01-20 23:18:00,
2013-01-20 15:19:00,46.4,9.6,30.27,ENE,68,2.9,4.9,22,0.00,,---,0.00,VWS V14.00,2013-01-20 23:19:00,
2013-01-20 15:20:00,46.4,9.6,30.27,NE,45,2.9,4.9,22,0.00,,---,0.00,VWS V14.00,2013-01-20 23:20:00,
2013-01-20 15:21:00,46.4,9.6,30.27,NE,45,2.9,2.9,22,0.00,,---,0.00,VWS V14.00,2013-01-20 23:21:00,
2013-01-20 15:23:00,46.4,9.6,30.27,NE,45,2.9,2.9,22,0.00,,---,0.00,VWS V14.00,2013-01-20 23:23:00,
2013-01-20 15:24:00,46.4,9.6,30.27,NE,45,2.9,2.9,22,0.00,,---,0.00,VWS V14.00,2013-01-20 23:24:00,
2013-01-20 15:25:00,46.4,9.6,30.27,NNE,22,3.1,4.3,22,0.00,,---,0.00,VWS V14.00,2013-01-20 23:25:00,
2013-01-20 15:26:00,46.2,9.5,30.27,NE,45,3.1,4.0,22,0.00,,---,0.00,VWS V14.00,2013-01-20 23:26:00,
2013-01-20 15:28:00,46.0,9.3,30.24,NE,45,5.4,6.3,22,0.00,,---,0.00,VWS V14.00,2013-01-20 23:28:00,
2013-01-20 15:30:00,46.0,9.3,30.24,NE,45,3.8,6.3,22,0.00,,---,0.00,VWS V14.00,2013-01-20 23:30:00,
2013-01-20 15:31:00,45.5,8.9,30.24,NE,45,3.1,5.4,22,0.00,,---,0.00,VWS V14.00,2013-01-20 23:31:00,
2013-01-20 15:34:00,45.3,8.7,30.24,NE,45,4.9,6.3,22,0.00,,---,0.00,VWS V14.00,2013-01-20 23:34:00,
2013-01-20 15:35:00,45.0,8.4,30.24,ENE,68,3.8,6.3,22,0.00,,---,0.00,VWS V14.00,2013-01-20 23:35:00,
2013-01-20 15:37:00,45.0,8.4,30.24,NNE,22,3.8,6.3,22,0.00,,---,0.00,VWS V14.00,2013-01-20 23:37:00,
2013-01-20 15:39:00,44.6,8.1,30.24,NNE,22,3.4,6.3,22,0.00,,---,0.00,VWS V14.00,2013-01-20 23:39:00,
2013-01-20 15:40:00,44.6,8.1,30.24,ENE,68,4.3,6.3,22,0.00,,---,0.00,VWS V14.00,2013-01-20 23:40:00,
2013-01-20 15:42:00,44.1,8.6,30.24,NNE,22,2.9,5.6,23,0.00,,---,0.00,VWS V14.00,2013-01-20 23:42:00,
2013-01-20 15:45:00,44.1,8.6,30.27,NNE,22,4.0,5.6,23,0.00,,---,0.00,VWS V14.00,2013-01-20 23:45:00,
2013-01-20 15:47:00,43.7,8.3,30.27,NE,45,4.9,4.9,23,0.00,,---,0.00,VWS V14.00,2013-01-20 23:47:00,
2013-01-20 15:50:00,43.7,8.3,30.27,NNE,22,2.9,5.6,23,0.00,,---,0.00,VWS V14.00,2013-01-20 23:50:00,
2013-01-20 15:52:00,43.7,8.3,30.27,NNE,22,6.3,7.4,23,0.00,,---,0.00,VWS V14.00,2013-01-20 23:52:00,
2013-01-20 15:55:00,42.6,7.4,30.27,NE,45,5.4,7.4,23,0.00,,---,0.00,VWS V14.00,2013-01-20 23:55:00,
2013-01-20 15:58:00,42.3,7.1,30.27,NE,45,5.8,6.5,23,0.00,,---,0.00,VWS V14.00,2013-01-20 23:58:00,
2013-01-20 16:00:00,41.9,6.8,30.27,NE,45,4.9,7.4,23,0.00,,---,0.00,VWS V14.00,2013-01-21 00:00:00,
2013-01-20 16:03:00,41.7,6.7,30.27,NE,45,5.6,6.3,23,0.00,,---,0.00,VWS V14.00,2013-01-21 00:03:00,
2013-01-20 16:05:00,41.4,6.4,30.27,NE,45,5.8,6.3,23,0.00,,---,0.00,VWS V14.00,2013-01-21 00:05:00,
2013-01-20 16:06:00,41.0,6.1,30.27,NE,45,6.5,6.5,23,0.00,,---,0.00,VWS V14.00,2013-01-21 00:06:00,
2013-01-20 16:08:00,40.8,5.9,30.27,NE,45,5.8,6.5,23,0.00,,---,0.00,VWS V14.00,2013-01-21 00:08:00,
2013-01-20 16:10:00,30.6,4.9,30.27,East,90,2.5,2.5,33,0.00,,---,0.00,VWS V14.00,2013-01-21 00:10:00,
2013-01-20 16:11:00,40.5,8.3,30.27,NNE,22,3.6,6.5,26,0.00,,---,0.00,VWS V14.00,2013-01-21 00:11:00,
2013-01-20 16:13:00,40.3,8.1,30.27,NE,45,5.4,6.5,26,0.00,,---,0.00,VWS V14.00,2013-01-21 00:13:00,
2013-01-20 16:15:00,39.9,7.8,30.27,NE,45,3.6,6.5,26,0.00,,---,0.00,VWS V14.00,2013-01-21 00:15:00,
2013-01-20 16:16:00,39.9,7.8,30.27,NE,45,5.6,5.6,26,0.00,,---,0.00,VWS V14.00,2013-01-21 00:16:00,
2013-01-20 16:18:00,39.9,7.8,30.27,NE,45,5.6,5.6,26,0.00,,---,0.00,VWS V14.00,2013-01-21 00:18:00,
2013-01-20 16:19:00,39.9,7.8,30.27,ENE,68,5.4,5.6,26,0.00,,---,0.00,VWS V14.00,2013-01-21 00:19:00,
2013-01-20 16:20:00,39.4,7.4,30.27,NE,45,4.3,5.6,26,0.00,,---,0.00,VWS V14.00,2013-01-21 00:20:00,
2013-01-20 16:21:00,39.4,7.4,30.27,NE,45,4.3,5.6,26,0.00,,---,0.00,VWS V14.00,2013-01-21 00:21:00,
2013-01-20 16:23:00,39.4,7.4,30.27,NE,45,2.5,4.3,26,0.00,,---,0.00,VWS V14.00,2013-01-21 00:23:00,
2013-01-20 16:24:00,39.4,7.4,30.27,NE,45,2.7,4.3,26,0.00,,---,0.00,VWS V14.00,2013-01-21 00:24:00,
2013-01-20 16:25:00,39.2,7.2,30.27,NE,45,2.9,4.3,26,0.00,,---,0.00,VWS V14.00,2013-01-21 00:25:00,
2013-01-20 16:26:00,39.2,7.2,30.27,NNE,22,3.8,3.8,26,0.00,,---,0.00,VWS V14.00,2013-01-21 00:26:00,
2013-01-20 16:27:00,39.2,7.2,30.27,ENE,68,3.8,3.8,26,0.00,,---,0.00,VWS V14.00,2013-01-21 00:27:00,
2013-01-20 16:28:00,38.8,6.9,30.27,ENE,68,4.9,4.9,26,0.00,,---,0.00,VWS V14.00,2013-01-21 00:28:00,
2013-01-20 16:29:00,38.8,6.9,30.27,ENE,68,4.9,4.9,26,0.00,,---,0.00,VWS V14.00,2013-01-21 00:29:00,
2013-01-20 16:30:00,38.8,6.9,30.27,ENE,68,4.9,4.9,26,0.00,,---,0.00,VWS V14.00,2013-01-21 00:30:00,
2013-01-20 16:31:00,38.5,6.6,30.27,ENE,68,2.7,4.9,26,0.00,,---,0.00,VWS V14.00,2013-01-21 00:31:00,
2013-01-20 16:32:00,38.5,6.6,30.27,ENE,68,2.7,4.9,26,0.00,,---,0.00,VWS V14.00,2013-01-21 00:32:00,
2013-01-20 16:34:00,38.1,6.3,30.27,NE,45,3.8,5.4,26,0.00,,---,0.00,VWS V14.00,2013-01-21 00:34:00,
2013-01-20 16:35:00,38.1,6.3,30.27,ENE,68,2.9,5.4,26,0.00,,---,0.00,VWS V14.00,2013-01-21 00:35:00,
2013-01-20 16:37:00,38.1,6.3,30.27,East,90,0.0,5.4,26,0.00,,---,0.00,VWS V14.00,2013-01-21 00:37:00,
2013-01-20 16:39:00,37.6,8.2,30.27,ENE,68,0.9,5.4,29,0.00,,---,0.00,VWS V14.00,2013-01-21 00:39:00,
2013-01-20 16:40:00,37.6,8.2,30.27,ENE,68,2.7,5.4,29,0.00,,---,0.00,VWS V14.00,2013-01-21 00:40:00,
2013-01-20 16:42:00,37.2,7.9,30.27,ENE,68,0.0,2.7,29,0.00,,---,0.00,VWS V14.00,2013-01-21 00:42:00,
2013-01-20 16:44:00,36.9,7.6,30.27,East,90,0.0,2.7,29,0.00,,---,0.00,VWS V14.00,2013-01-21 00:44:00,
2013-01-20 16:45:00,36.9,7.6,30.27,East,90,0.0,2.7,29,0.00,,---,0.00,VWS V14.00,2013-01-21 00:45:00,
2013-01-20 16:47:00,36.3,7.1,30.27,East,90,0.0,0.0,29,0.00,,---,0.00,VWS V14.00,2013-01-21 00:47:00,
2013-01-20 16:48:00,36.3,7.1,30.27,East,90,0.0,0.0,29,0.00,,---,0.00,VWS V14.00,2013-01-21 00:48:00,
2013-01-20 16:49:00,35.8,6.7,30.27,East,90,0.9,0.9,29,0.00,,---,0.00,VWS V14.00,2013-01-21 00:49:00,
2013-01-20 16:50:00,35.6,6.5,30.27,East,90,0.9,2.0,29,0.00,,---,0.00,VWS V14.00,2013-01-21 00:50:00,
2013-01-20 16:53:00,34.7,6.4,30.27,ENE,68,1.6,2.9,30,0.00,,---,0.00,VWS V14.00,2013-01-21 00:53:00,
2013-01-20 16:55:00,34.2,6.0,30.27,East,90,0.0,2.9,30,0.00,,---,0.00,VWS V14.00,2013-01-21 00:55:00,
2013-01-20 16:56:00,33.6,5.5,30.27,East,90,0.0,0.0,30,0.00,,---,0.00,VWS V14.00,2013-01-21 00:56:00,
2013-01-20 16:58:00,33.1,5.8,30.27,East,90,0.0,0.0,31,0.00,,---,0.00,VWS V14.00,2013-01-21 00:58:00,
2013-01-20 17:00:00,32.7,5.4,30.27,East,90,0.0,0.0,31,0.00,,---,0.00,VWS V14.00,2013-01-21 01:00:00,
2013-01-20 17:01:00,32.7,5.4,30.27,East,90,0.0,0.0,31,0.00,,---,0.00,VWS V14.00,2013-01-21 01:01:00,
2013-01-20 17:03:00,32.2,5.7,30.27,East,90,2.7,2.9,32,0.00,,---,0.00,VWS V14.00,2013-01-21 01:03:00,
2013-01-20 17:04:00,32.2,5.7,30.27,East,90,2.7,2.9,32,0.00,,---,0.00,VWS V14.00,2013-01-21 01:04:00,
2013-01-20 17:05:00,31.6,5.2,30.27,East,90,0.0,2.9,32,0.00,,---,0.00,VWS V14.00,2013-01-21 01:05:00,
2013-01-20 17:06:00,31.5,5.0,30.27,East,90,0.0,0.0,32,0.00,,---,0.00,VWS V14.00,2013-01-21 01:06:00,
2013-01-20 17:07:00,31.3,4.9,30.27,East,90,0.0,0.0,32,0.00,,---,0.00,VWS V14.00,2013-01-21 01:07:00,
2013-01-20 17:08:00,31.3,4.9,30.27,East,90,0.0,0.0,32,0.00,,---,0.00,VWS V14.00,2013-01-21 01:08:00,
2013-01-20 17:09:00,31.3,4.9,30.27,East,90,0.0,0.0,32,0.00,,---,0.00,VWS V14.00,2013-01-21 01:09:00,
2013-01-20 17:10:00,30.6,4.9,30.27,East,90,2.5,2.5,33,0.00,,---,0.00,VWS V14.00,2013-01-21 01:10:00,
2013-01-20 17:12:00,30.6,4.9,30.27,East,90,2.2,2.5,33,0.00,,---,0.00,VWS V14.00,2013-01-21 01:12:00,
2013-01-20 17:14:00,30.2,5.2,30.27,East,90,0.0,2.5,34,0.00,,---,0.00,VWS V14.00,2013-01-21 01:14:00,
2013-01-20 17:15:00,30.2,5.2,30.27,East,90,0.0,2.5,34,0.00,,---,0.00,VWS V14.00,2013-01-21 01:15:00,
2013-01-20 17:17:00,29.7,5.4,30.27,East,90,0.0,1.6,35,0.00,,---,0.00,VWS V14.00,2013-01-21 01:17:00,
2013-01-20 17:19:00,29.5,5.2,30.27,East,90,0.0,1.6,35,0.00,,---,0.00,VWS V14.00,2013-01-21 01:19:00,
2013-01-20 17:20:00,29.5,5.2,30.27,East,90,0.0,1.6,35,0.00,,---,0.00,VWS V14.00,2013-01-21 01:20:00,
2013-01-20 17:22:00,29.3,5.7,30.27,East,90,0.0,0.0,36,0.00,,---,0.00,VWS V14.00,2013-01-21 01:22:00,
2013-01-20 17:23:00,29.1,5.5,30.27,East,90,0.0,0.0,36,0.00,,---,0.00,VWS V14.00,2013-01-21 01:23:00,
2013-01-20 17:25:00,29.1,5.5,30.27,East,90,0.0,0.0,36,0.00,,---,0.00,VWS V14.00,2013-01-21 01:25:00,
2013-01-20 17:27:00,28.6,6.2,30.27,East,90,0.0,0.0,38,0.00,,---,0.00,VWS V14.00,2013-01-21 01:27:00,
2013-01-20 17:28:00,28.4,6.6,30.27,East,90,0.0,0.0,39,0.00,,---,0.00,VWS V14.00,2013-01-21 01:28:00,
2013-01-20 17:30:00,28.2,7.0,30.27,East,90,2.5,2.5,40,0.00,,---,0.00,VWS V14.00,2013-01-21 01:30:00,
2013-01-20 17:31:00,28.2,7.0,30.27,East,90,2.2,2.2,40,0.00,,---,0.00,VWS V14.00,2013-01-21 01:31:00,
2013-01-20 17:33:00,27.9,6.7,30.27,East,90,0.0,2.2,40,0.00,,---,0.00,VWS V14.00,2013-01-21 01:33:00,
2013-01-20 17:34:00,27.9,6.7,30.27,East,90,0.0,2.2,40,0.00,,---,0.00,VWS V14.00,2013-01-21 01:34:00,
2013-01-20 17:35:00,27.9,6.1,30.27,ENE,68,0.0,2.2,39,0.00,,---,0.00,VWS V14.00,2013-01-21 01:35:00,
2013-01-20 17:36:00,27.9,5.6,30.27,ENE,68,0.0,0.0,38,0.00,,---,0.00,VWS V14.00,2013-01-21 01:36:00,
2013-01-20 17:38:00,27.9,5.6,30.27,NE,45,0.0,0.0,38,0.00,,---,0.00,VWS V14.00,2013-01-21 01:38:00,
2013-01-20 17:39:00,27.9,5.6,30.27,NE,45,0.0,0.0,38,0.00,,---,0.00,VWS V14.00,2013-01-21 01:39:00,
2013-01-20 17:40:00,27.9,5.6,30.27,NE,45,0.0,0.0,38,0.00,,---,0.00,VWS V14.00,2013-01-21 01:40:00,
2013-01-20 17:41:00,27.9,5.6,30.27,NE,45,0.0,0.0,38,0.00,,---,0.00,VWS V14.00,2013-01-21 01:41:00,
2013-01-20 17:43:00,27.9,5.6,30.27,NE,45,0.0,0.0,38,0.00,,---,0.00,VWS V14.00,2013-01-21 01:43:00,
2013-01-20 17:45:00,26.6,5.6,30.27,NE,45,0.0,0.0,40,0.00,,---,0.00,VWS V14.00,2013-01-21 01:45:00,
2013-01-20 17:46:00,26.6,5.6,30.27,NE,45,0.0,0.0,40,0.00,,---,0.00,VWS V14.00,2013-01-21 01:46:00,
2013-01-20 17:47:00,26.2,4.1,30.27,NE,45,0.0,0.0,38,0.00,,---,0.00,VWS V14.00,2013-01-21 01:47:00,
2013-01-20 17:49:00,26.2,4.1,30.27,NE,45,0.0,0.0,38,0.00,,---,0.00,VWS V14.00,2013-01-21 01:49:00,
2013-01-20 17:50:00,26.2,4.1,30.27,SSW,202,0.0,0.0,38,0.00,,---,0.00,VWS V14.00,2013-01-21 01:50:00,
2013-01-20 17:51:00,25.9,4.9,30.27,SSW,202,0.0,0.0,40,0.00,,---,0.00,VWS V14.00,2013-01-21 01:51:00,
2013-01-20 17:52:00,26.1,4.5,30.27,SSW,202,0.0,0.0,39,0.00,,---,0.00,VWS V14.00,2013-01-21 01:52:00,
2013-01-20 17:54:00,26.1,4.5,30.27,SSW,202,0.0,0.0,39,0.00,,---,0.00,VWS V14.00,2013-01-21 01:54:00,
2013-01-20 17:55:00,25.9,4.3,30.27,SSW,202,0.0,0.0,39,0.00,,---,0.00,VWS V14.00,2013-01-21 01:55:00,
2013-01-20 17:56:00,25.9,4.3,30.27,SSW,202,0.0,0.0,39,0.00,,---,0.00,VWS V14.00,2013-01-21 01:56:00,
2013-01-20 17:57:00,25.7,4.2,30.27,SSW,202,0.0,0.0,39,0.00,,---,0.00,VWS V14.00,2013-01-21 01:57:00,
2013-01-20 17:59:00,25.3,3.9,30.27,SSW,202,0.0,0.0,39,0.00,,---,0.00,VWS V14.00,2013-01-21 01:59:00,
2013-01-20 18:00:00,25.2,3.7,30.27,SSW,202,0.0,0.0,39,0.00,,---,0.00,VWS V14.00,2013-01-21 02:00:00,
2013-01-20 18:01:00,25.0,3.5,30.27,SSW,202,0.0,0.0,39,0.00,,---,0.00,VWS V14.00,2013-01-21 02:01:00,
2013-01-20 18:02:00,24.6,3.2,30.27,SSW,202,0.0,0.0,39,0.00,,---,0.00,VWS V14.00,2013-01-21 02:02:00,
2013-01-20 18:04:00,24.4,3.0,30.27,SSW,202,0.0,0.0,39,0.00,,---,0.00,VWS V14.00,2013-01-21 02:04:00,
2013-01-20 18:05:00,24.4,3.0,30.27,SSW,202,0.0,0.0,39,0.00,,---,0.00,VWS V14.00,2013-01-21 02:05:00,
2013-01-20 18:06:00,24.4,3.0,30.27,SSW,202,0.0,0.0,39,0.00,,---,0.00,VWS V14.00,2013-01-21 02:06:00,
2013-01-20 18:08:00,24.4,3.6,30.27,SSW,202,0.0,0.0,40,0.00,,---,0.00,VWS V14.00,2013-01-21 02:08:00,
2013-01-20 18:10:00,24.4,4.1,30.27,SSW,202,0.0,0.0,41,0.00,,---,0.00,VWS V14.00,2013-01-21 02:10:00,
2013-01-20 18:12:00,24.4,4.1,30.27,SSW,202,0.0,0.0,41,0.00,,---,0.00,VWS V14.00,2013-01-21 02:12:00,
2013-01-20 18:13:00,24.1,3.8,30.27,SSW,202,0.0,0.0,41,0.00,,---,0.00,VWS V14.00,2013-01-21 02:13:00,
2013-01-20 18:15:00,24.1,3.8,30.27,SSW,202,0.0,0.0,41,0.00,,---,0.00,VWS V14.00,2013-01-21 02:15:00,
2013-01-20 18:17:00,24.1,3.8,30.27,SSW,202,0.0,0.0,41,0.00,,---,0.00,VWS V14.00,2013-01-21 02:17:00,
2013-01-20 18:19:00,23.9,4.2,30.27,SSW,202,0.0,0.0,42,0.00,,---,0.00,VWS V14.00,2013-01-21 02:19:00,
2013-01-20 18:20:00,23.9,4.2,30.27,SSW,202,0.0,0.0,42,0.00,,---,0.00,VWS V14.00,2013-01-21 02:20:00,
2013-01-20 18:21:00,23.7,4.0,30.27,SSW,202,0.0,0.0,42,0.00,,---,0.00,VWS V14.00,2013-01-21 02:21:00,
2013-01-20 18:22:00,23.7,4.0,30.27,SSW,202,0.0,0.0,42,0.00,,---,0.00,VWS V14.00,2013-01-21 02:22:00,
2013-01-20 18:24:00,23.5,3.8,30.27,SSW,202,0.0,0.0,42,0.00,,---,0.00,VWS V14.00,2013-01-21 02:24:00,
2013-01-20 18:25:00,23.5,3.8,30.27,SSW,202,0.0,0.0,42,0.00,,---,0.00,VWS V14.00,2013-01-21 02:25:00,
2013-01-20 18:26:00,23.5,3.8,30.27,SSW,202,0.0,0.0,42,0.00,,---,0.00,VWS V14.00,2013-01-21 02:26:00,
2013-01-20 18:27:00,23.2,3.5,30.27,SSW,202,0.0,0.0,42,0.00,,---,0.00,VWS V14.00,2013-01-21 02:27:00,
2013-01-20 18:30:00,23.0,3.3,30.27,SSW,202,0.0,0.0,42,0.00,,---,0.00,VWS V14.00,2013-01-21 02:30:00,
2013-01-20 18:31:00,23.0,3.3,30.27,SSW,202,0.0,0.0,42,0.00,,---,0.00,VWS V14.00,2013-01-21 02:31:00,
2013-01-20 18:32:00,23.0,3.3,30.27,SSW,202,0.0,0.0,42,0.00,,---,0.00,VWS V14.00,2013-01-21 02:32:00,
2013-01-20 18:35:00,22.8,3.7,30.27,SSW,202,0.0,0.0,43,0.00,,---,0.00,VWS V14.00,2013-01-21 02:35:00,
2013-01-20 18:36:00,22.8,3.7,30.27,SSW,202,0.0,0.0,43,0.00,,---,0.00,VWS V14.00,2013-01-21 02:36:00,
2013-01-20 18:38:00,22.8,3.7,30.27,SSW,202,0.0,0.0,43,0.00,,---,0.00,VWS V14.00,2013-01-21 02:38:00,
2013-01-20 18:40:00,22.6,3.5,30.27,SSW,202,0.0,0.0,43,0.00,,---,0.00,VWS V14.00,2013-01-21 02:40:00,
2013-01-20 18:41:00,22.6,3.5,30.27,SSW,202,0.0,0.0,43,0.00,,---,0.00,VWS V14.00,2013-01-21 02:41:00,
2013-01-20 18:43:00,22.6,3.5,30.27,SSW,202,0.0,0.0,43,0.00,,---,0.00,VWS V14.00,2013-01-21 02:43:00,
2013-01-20 18:45:00,22.6,3.5,30.27,SSW,202,0.0,0.0,43,0.00,,---,0.00,VWS V14.00,2013-01-21 02:45:00,
2013-01-20 18:46:00,22.6,3.5,30.27,SSW,202,0.0,0.0,43,0.00,,---,0.00,VWS V14.00,2013-01-21 02:46:00,
2013-01-20 18:47:00,22.5,3.4,30.27,SSW,202,0.0,0.0,43,0.00,,---,0.00,VWS V14.00,2013-01-21 02:47:00,
2013-01-20 18:48:00,22.5,3.4,30.27,SSW,202,0.0,0.0,43,0.00,,---,0.00,VWS V14.00,2013-01-21 02:48:00,
2013-01-20 18:50:00,22.6,3.5,30.27,SSW,202,0.0,0.0,43,0.00,,---,0.00,VWS V14.00,2013-01-21 02:50:00,
2013-01-20 18:52:00,22.6,4.0,30.27,SSW,202,0.0,0.0,44,0.00,,---,0.00,VWS V14.00,2013-01-21 02:52:00,
2013-01-20 18:53:00,22.5,3.9,30.27,SSW,202,0.0,0.0,44,0.00,,---,0.00,VWS V14.00,2013-01-21 02:53:00,
2013-01-20 18:55:00,22.3,3.7,30.27,SSW,202,0.0,0.0,44,0.00,,---,0.00,VWS V14.00,2013-01-21 02:55:00,
2013-01-20 18:57:00,22.3,3.7,30.30,SSW,202,0.0,0.0,44,0.00,,---,0.00,VWS V14.00,2013-01-21 02:57:00,
2013-01-20 18:59:00,22.3,3.7,30.30,SSW,202,0.0,0.0,44,0.00,,---,0.00,VWS V14.00,2013-01-21 02:59:00,
2013-01-20 19:00:00,19.0,2.6,30.27,WNW,292,0.0,0.0,48,0.00,,---,0.00,VWS V14.00,2013-01-21 03:00:00,
2013-01-20 19:01:00,21.9,3.4,30.30,SSW,202,0.0,0.0,44,0.00,,---,0.00,VWS V14.00,2013-01-21 03:01:00,
2013-01-20 19:03:00,21.7,3.2,30.30,SSW,202,0.0,0.0,44,0.00,,---,0.00,VWS V14.00,2013-01-21 03:03:00,
2013-01-20 19:04:00,21.6,3.0,30.30,SSW,202,0.0,0.0,44,0.00,,---,0.00,VWS V14.00,2013-01-21 03:04:00,
2013-01-20 19:05:00,21.6,3.0,30.30,SSW,202,0.0,0.0,44,0.00,,---,0.00,VWS V14.00,2013-01-21 03:05:00,
2013-01-20 19:06:00,21.4,2.9,30.30,SSW,202,0.0,0.0,44,0.00,,---,0.00,VWS V14.00,2013-01-21 03:06:00,
2013-01-20 19:08:00,21.4,2.9,30.30,SSW,202,0.0,0.0,44,0.00,,---,0.00,VWS V14.00,2013-01-21 03:08:00,
2013-01-20 19:10:00,21.2,3.7,30.30,SSW,202,1.3,1.3,46,0.00,,---,0.00,VWS V14.00,2013-01-21 03:10:00,
2013-01-20 19:11:00,21.4,3.8,30.30,SSW,202,0.0,1.3,46,0.00,,---,0.00,VWS V14.00,2013-01-21 03:11:00,
2013-01-20 19:13:00,21.6,5.8,30.30,NNE,22,0.0,0.0,50,0.00,,---,0.00,VWS V14.00,2013-01-21 03:13:00,
2013-01-20 19:15:00,21.6,7.5,30.30,NNE,22,0.0,0.0,54,0.00,,---,0.00,VWS V14.00,2013-01-21 03:15:00,
2013-01-20 19:16:00,21.6,7.5,30.30,NNE,22,0.0,0.0,54,0.00,,---,0.00,VWS V14.00,2013-01-21 03:16:00,
2013-01-20 19:18:00,21.6,7.5,30.30,North,0,0.0,0.0,54,0.00,,---,0.00,VWS V14.00,2013-01-21 03:18:00,
2013-01-20 19:20:00,20.8,6.8,30.30,North,0,0.0,0.0,54,0.00,,---,0.00,VWS V14.00,2013-01-21 03:20:00,
2013-01-20 19:23:00,21.2,8.4,30.30,North,0,0.0,0.0,57,0.00,,---,0.00,VWS V14.00,2013-01-21 03:23:00,
2013-01-20 19:25:00,21.2,7.6,30.30,North,0,0.0,0.0,55,0.00,,---,0.00,VWS V14.00,2013-01-21 03:25:00,
2013-01-20 19:28:00,21.0,5.3,30.30,North,0,0.0,0.0,50,0.00,,---,0.00,VWS V14.00,2013-01-21 03:28:00,
2013-01-20 19:29:00,21.0,5.3,30.30,North,0,0.0,0.0,50,0.00,,---,0.00,VWS V14.00,2013-01-21 03:29:00,
2013-01-20 19:30:00,20.7,5.0,30.30,North,0,0.0,0.0,50,0.00,,---,0.00,VWS V14.00,2013-01-21 03:30:00,
2013-01-20 19:33:00,20.7,5.0,30.30,North,0,0.0,0.0,50,0.00,,---,0.00,VWS V14.00,2013-01-21 03:33:00,
2013-01-20 19:34:00,20.7,5.0,30.30,North,0,0.0,0.0,50,0.00,,---,0.00,VWS V14.00,2013-01-21 03:34:00,
2013-01-20 19:35:00,18.5,3.8,30.27,WSW,248,0.0,0.0,52,0.00,,---,0.00,VWS V14.00,2013-01-21 03:35:00,
2013-01-20 19:36:00,20.5,4.4,30.30,North,0,0.0,0.0,49,0.00,,---,0.00,VWS V14.00,2013-01-21 03:36:00,
2013-01-20 19:39:00,20.5,4.4,30.30,North,0,0.0,0.0,49,0.00,,---,0.00,VWS V14.00,2013-01-21 03:39:00,
2013-01-20 19:40:00,20.1,4.0,30.30,North,0,0.0,0.0,49,0.00,,---,0.00,VWS V14.00,2013-01-21 03:40:00,
2013-01-20 19:41:00,20.1,4.0,30.30,North,0,0.0,0.0,49,0.00,,---,0.00,VWS V14.00,2013-01-21 03:41:00,
2013-01-20 19:44:00,19.8,3.7,30.30,North,0,0.0,0.0,49,0.00,,---,0.00,VWS V14.00,2013-01-21 03:44:00,
2013-01-20 19:45:00,19.6,3.5,30.30,North,0,0.0,0.0,49,0.00,,---,0.00,VWS V14.00,2013-01-21 03:45:00,
2013-01-20 19:47:00,19.6,3.5,30.30,North,0,0.0,0.0,49,0.00,,---,0.00,VWS V14.00,2013-01-21 03:47:00,
2013-01-20 19:49:00,19.4,3.4,30.30,North,0,0.0,0.0,49,0.00,,---,0.00,VWS V14.00,2013-01-21 03:49:00,
2013-01-20 19:50:00,19.4,3.4,30.30,North,0,0.0,0.0,49,0.00,,---,0.00,VWS V14.00,2013-01-21 03:50:00,
2013-01-20 19:51:00,19.4,3.4,30.30,North,0,0.0,0.0,49,0.00,,---,0.00,VWS V14.00,2013-01-21 03:51:00,
2013-01-20 19:52:00,19.2,3.2,30.30,North,0,0.0,0.0,49,0.00,,---,0.00,VWS V14.00,2013-01-21 03:52:00,
2013-01-20 19:54:00,19.2,3.2,30.30,North,0,0.0,0.0,49,0.00,,---,0.00,VWS V14.00,2013-01-21 03:54:00,
2013-01-20 19:55:00,19.2,3.2,30.30,North,0,0.0,0.0,49,0.00,,---,0.00,VWS V14.00,2013-01-21 03:55:00,
2013-01-20 19:56:00,19.2,3.2,30.30,North,0,0.0,0.0,49,0.00,,---,0.00,VWS V14.00,2013-01-21 03:56:00,
2013-01-20 19:57:00,19.0,2.6,30.27,North,0,0.0,0.0,48,0.00,,---,0.00,VWS V14.00,2013-01-21 03:57:00,
2013-01-20 20:00:00,19.0,2.6,30.27,WNW,292,0.0,0.0,48,0.00,,---,0.00,VWS V14.00,2013-01-21 04:00:00,
2013-01-20 20:01:00,19.0,2.6,30.27,WNW,292,0.0,0.0,48,0.00,,---,0.00,VWS V14.00,2013-01-21 04:01:00,
2013-01-20 20:03:00,18.9,2.9,30.27,WSW,248,0.0,0.0,49,0.00,,---,0.00,VWS V14.00,2013-01-21 04:03:00,
2013-01-20 20:05:00,19.0,3.5,30.27,WSW,248,0.0,0.0,50,0.00,,---,0.00,VWS V14.00,2013-01-21 04:05:00,
2013-01-20 20:06:00,19.0,3.5,30.27,WSW,248,0.0,0.0,50,0.00,,---,0.00,VWS V14.00,2013-01-21 04:06:00,
2013-01-20 20:08:00,19.0,3.9,30.27,WSW,248,0.0,0.0,51,0.00,,---,0.00,VWS V14.00,2013-01-21 04:08:00,
2013-01-20 20:10:00,19.0,3.9,30.27,WSW,248,0.0,0.0,51,0.00,,---,0.00,VWS V14.00,2013-01-21 04:10:00,
2013-01-20 20:11:00,19.0,3.9,30.27,WSW,248,0.0,0.0,51,0.00,,---,0.00,VWS V14.00,2013-01-21 04:11:00,
2013-01-20 20:13:00,19.0,3.9,30.27,WSW,248,0.0,0.0,51,0.00,,---,0.00,VWS V14.00,2013-01-21 04:13:00,
2013-01-20 20:15:00,19.0,3.9,30.27,WSW,248,0.0,0.0,51,0.00,,---,0.00,VWS V14.00,2013-01-21 04:15:00,
2013-01-20 20:16:00,19.2,4.5,30.27,WSW,248,0.0,0.0,52,0.00,,---,0.00,VWS V14.00,2013-01-21 04:16:00,
2013-01-20 20:18:00,19.2,4.9,30.27,WSW,248,0.0,0.0,53,0.00,,---,0.00,VWS V14.00,2013-01-21 04:18:00,
2013-01-20 20:20:00,19.2,4.9,30.27,WSW,248,0.0,0.0,53,0.00,,---,0.00,VWS V14.00,2013-01-21 04:20:00,
2013-01-20 20:21:00,19.2,4.9,30.27,WSW,248,0.0,0.0,53,0.00,,---,0.00,VWS V14.00,2013-01-21 04:21:00,
2013-01-20 20:23:00,19.0,4.7,30.27,WSW,248,0.0,0.0,53,0.00,,---,0.00,VWS V14.00,2013-01-21 04:23:00,
2013-01-20 20:25:00,19.0,4.7,30.27,WSW,248,0.0,0.0,53,0.00,,---,0.00,VWS V14.00,2013-01-21 04:25:00,
2013-01-20 20:26:00,19.0,4.7,30.27,WSW,248,0.0,0.0,53,0.00,,---,0.00,VWS V14.00,2013-01-21 04:26:00,
2013-01-20 20:27:00,18.9,4.2,30.27,WSW,248,0.0,0.0,52,0.00,,---,0.00,VWS V14.00,2013-01-21 04:27:00,
2013-01-20 20:28:00,18.7,4.0,30.27,WSW,248,0.0,0.0,52,0.00,,---,0.00,VWS V14.00,2013-01-21 04:28:00,
2013-01-20 20:30:00,18.5,3.8,30.27,WSW,248,0.0,0.0,52,0.00,,---,0.00,VWS V14.00,2013-01-21 04:30:00,
2013-01-20 20:32:00,18.5,3.8,30.27,WSW,248,0.0,0.0,52,0.00,,---,0.00,VWS V14.00,2013-01-21 04:32:00,
2013-01-20 20:33:00,18.5,3.8,30.27,WSW,248,0.0,0.0,52,0.00,,---,0.00,VWS V14.00,2013-01-21 04:33:00,
2013-01-20 20:35:00,18.5,3.8,30.27,WSW,248,0.0,0.0,52,0.00,,---,0.00,VWS V14.00,2013-01-21 04:35:00,
2013-01-20 20:36:00,18.5,3.8,30.27,WSW,248,0.0,0.0,52,0.00,,---,0.00,VWS V14.00,2013-01-21 04:36:00,
2013-01-20 20:38:00,18.1,3.9,30.27,WSW,248,0.0,0.0,53,0.00,,---,0.00,VWS V14.00,2013-01-21 04:38:00,
2013-01-20 20:39:00,18.1,3.9,30.27,WSW,248,0.0,0.0,53,0.00,,---,0.00,VWS V14.00,2013-01-21 04:39:00,
2013-01-20 20:40:00,18.0,3.7,30.27,WSW,248,0.0,0.0,53,0.00,,---,0.00,VWS V14.00,2013-01-21 04:40:00,
2013-01-20 20:41:00,18.0,3.7,30.27,WSW,248,0.0,0.0,53,0.00,,---,0.00,VWS V14.00,2013-01-21 04:41:00,
2013-01-20 20:43:00,17.8,4.0,30.27,WSW,248,0.0,0.0,54,0.00,,---,0.00,VWS V14.00,2013-01-21 04:43:00,
2013-01-20 20:44:00,17.6,3.8,30.27,WSW,248,0.0,0.0,54,0.00,,---,0.00,VWS V14.00,2013-01-21 04:44:00,
2013-01-20 20:45:00,17.4,3.6,30.27,WSW,248,0.0,0.0,54,0.00,,---,0.00,VWS V14.00,2013-01-21 04:45:00,
2013-01-20 20:47:00,17.4,3.6,30.27,WSW,248,0.0,0.0,54,0.00,,---,0.00,VWS V14.00,2013-01-21 04:47:00,
2013-01-20 20:48:00,17.2,3.5,30.27,WSW,248,0.0,0.0,54,0.00,,---,0.00,VWS V14.00,2013-01-21 04:48:00,
2013-01-20 20:49:00,17.2,3.5,30.27,WSW,248,0.0,0.0,54,0.00,,---,0.00,VWS V14.00,2013-01-21 04:49:00,
2013-01-20 20:50:00,17.1,3.3,30.27,WSW,248,0.0,0.0,54,0.00,,---,0.00,VWS V14.00,2013-01-21 04:50:00,
2013-01-20 20:52:00,17.1,3.3,30.27,WSW,248,0.0,0.0,54,0.00,,---,0.00,VWS V14.00,2013-01-21 04:52:00,
2013-01-20 20:53:00,17.1,3.3,30.27,WSW,248,0.0,0.0,54,0.00,,---,0.00,VWS V14.00,2013-01-21 04:53:00,
2013-01-20 20:54:00,16.9,3.1,30.27,WSW,248,0.0,0.0,54,0.00,,---,0.00,VWS V14.00,2013-01-21 04:54:00,
2013-01-20 20:55:00,16.9,3.1,30.27,WSW,248,0.0,0.0,54,0.00,,---,0.00,VWS V14.00,2013-01-21 04:55:00,
2013-01-20 20:57:00,16.9,3.1,30.27,WSW,248,0.0,0.0,54,0.00,,---,0.00,VWS V14.00,2013-01-21 04:57:00,
2013-01-20 20:58:00,16.9,3.5,30.27,WSW,248,0.0,0.0,55,0.00,,---,0.00,VWS V14.00,2013-01-21 04:58:00,
2013-01-20 20:59:00,16.7,3.3,30.27,WSW,248,0.0,0.0,55,0.00,,---,0.00,VWS V14.00,2013-01-21 04:59:00,
2013-01-20 21:00:00,16.7,3.3,30.27,WSW,248,0.0,0.0,55,0.00,,---,0.00,VWS V14.00,2013-01-21 05:00:00,
2013-01-20 21:01:00,16.7,3.3,30.27,WSW,248,0.0,0.0,55,0.00,,---,0.00,VWS V14.00,2013-01-21 05:01:00,
2013-01-20 21:03:00,16.2,2.5,30.27,WSW,248,0.0,0.0,54,0.00,,---,0.00,VWS V14.00,2013-01-21 05:03:00,
2013-01-20 21:04:00,16.2,2.5,30.27,WSW,248,0.0,0.0,54,0.00,,---,0.00,VWS V14.00,2013-01-21 05:04:00,
2013-01-20 21:05:00,16.2,2.5,30.27,WSW,248,0.0,0.0,54,0.00,,---,0.00,VWS V14.00,2013-01-21 05:05:00,
2013-01-20 21:06:00,16.0,2.3,30.27,WSW,248,0.0,0.0,54,0.00,,---,0.00,VWS V14.00,2013-01-21 05:06:00,
2013-01-20 21:09:00,16.0,2.3,30.27,WSW,248,0.0,0.0,54,0.00,,---,0.00,VWS V14.00,2013-01-21 05:09:00,
2013-01-20 21:10:00,16.0,2.3,30.27,WSW,248,0.0,0.0,54,0.00,,---,0.00,VWS V14.00,2013-01-21 05:10:00,
2013-01-20 21:11:00,16.0,2.7,30.27,WSW,248,0.0,0.0,55,0.00,,---,0.00,VWS V14.00,2013-01-21 05:11:00,
2013-01-20 21:14:00,16.2,2.8,30.27,WSW,248,0.0,0.0,55,0.00,,---,0.00,VWS V14.00,2013-01-21 05:14:00,
2013-01-20 21:15:00,16.2,2.8,30.27,WSW,248,0.0,0.0,55,0.00,,---,0.00,VWS V14.00,2013-01-21 05:15:00,
2013-01-20 21:17:00,16.2,2.5,30.27,WSW,248,0.0,0.0,54,0.00,,---,0.00,VWS V14.00,2013-01-21 05:17:00,
2013-01-20 21:19:00,16.2,2.8,30.27,WSW,248,0.0,0.0,55,0.00,,---,0.00,VWS V14.00,2013-01-21 05:19:00,
2013-01-20 21:20:00,16.2,2.8,30.27,WSW,248,0.0,0.0,55,0.00,,---,0.00,VWS V14.00,2013-01-21 05:20:00,
2013-01-20 21:22:00,16.2,2.8,30.27,WSW,248,0.0,0.0,55,0.00,,---,0.00,VWS V14.00,2013-01-21 05:22:00,
2013-01-20 21:24:00,16.0,2.7,30.27,WSW,248,0.0,0.0,55,0.00,,---,0.00,VWS V14.00,2013-01-21 05:24:00,
2013-01-20 21:25:00,16.0,2.7,30.27,WSW,248,0.0,0.0,55,0.00,,---,0.00,VWS V14.00,2013-01-21 05:25:00,
2013-01-20 21:27:00,16.0,2.7,30.27,NNE,22,0.0,0.0,55,0.00,,---,0.00,VWS V14.00,2013-01-21 05:27:00,
2013-01-20 21:30:00,16.0,2.7,30.27,NNE,22,0.0,0.0,55,0.00,,---,0.00,VWS V14.00,2013-01-21 05:30:00,
2013-01-20 21:31:00,16.0,2.7,30.27,NNE,22,0.0,0.0,55,0.00,,---,0.00,VWS V14.00,2013-01-21 05:31:00,
2013-01-20 21:32:00,16.0,2.7,30.27,NE,45,0.0,0.0,55,0.00,,---,0.00,VWS V14.00,2013-01-21 05:32:00,
2013-01-20 21:35:00,16.0,3.1,30.27,NE,45,0.0,0.0,56,0.00,,---,0.00,VWS V14.00,2013-01-21 05:35:00,
2013-01-20 21:36:00,16.0,3.1,30.27,NE,45,0.0,0.0,56,0.00,,---,0.00,VWS V14.00,2013-01-21 05:36:00,
2013-01-20 21:38:00,15.8,2.9,30.27,NE,45,0.0,0.0,56,0.00,,---,0.00,VWS V14.00,2013-01-21 05:38:00,
2013-01-20 21:40:00,15.8,2.9,30.27,NE,45,0.0,0.0,56,0.00,,---,0.00,VWS V14.00,2013-01-21 05:40:00,
2013-01-20 21:41:00,15.8,2.9,30.27,NE,45,0.0,0.0,56,0.00,,---,0.00,VWS V14.00,2013-01-21 05:41:00,
2013-01-20 21:42:00,15.8,2.9,30.27,NE,45,0.0,0.0,56,0.00,,---,0.00,VWS V14.00,2013-01-21 05:42:00,
2013-01-20 21:43:00,15.4,2.6,30.27,NE,45,0.0,0.0,56,0.00,,---,0.00,VWS V14.00,2013-01-21 05:43:00,
2013-01-20 21:45:00,15.4,2.6,30.27,NE,45,0.0,0.0,56,0.00,,---,0.00,VWS V14.00,2013-01-21 05:45:00,
2013-01-20 21:47:00,15.4,2.6,30.27,SSE,158,0.0,0.0,56,0.00,,---,0.00,VWS V14.00,2013-01-21 05:47:00,
2013-01-20 21:49:00,15.6,2.7,30.27,SSE,158,0.0,0.0,56,0.00,,---,0.00,VWS V14.00,2013-01-21 05:49:00,
2013-01-20 21:50:00,15.4,2.6,30.27,SSE,158,0.0,0.0,56,0.00,,---,0.00,VWS V14.00,2013-01-21 05:50:00,
2013-01-20 21:54:00,15.3,2.8,30.27,SSE,158,0.0,0.0,57,0.00,,---,0.00,VWS V14.00,2013-01-21 05:54:00,
2013-01-20 21:55:00,15.3,2.8,30.27,SSE,158,0.0,0.0,57,0.00,,---,0.00,VWS V14.00,2013-01-21 05:55:00,
2013-01-20 21:56:00,15.3,2.8,30.27,SSE,158,0.0,0.0,57,0.00,,---,0.00,VWS V14.00,2013-01-21 05:56:00,
2013-01-20 21:59:00,15.3,2.8,30.27,SSE,158,0.0,0.0,57,0.00,,---,0.00,VWS V14.00,2013-01-21 05:59:00,
2013-01-20 22:00:00,15.3,2.8,30.27,SSE,158,0.0,0.0,57,0.00,,---,0.00,VWS V14.00,2013-01-21 06:00:00,
2013-01-20 22:01:00,15.3,2.8,30.27,SSE,158,0.0,0.0,57,0.00,,---,0.00,VWS V14.00,2013-01-21 06:01:00,
2013-01-20 22:04:00,15.6,3.1,30.27,SSE,158,0.0,0.0,57,0.00,,---,0.00,VWS V14.00,2013-01-21 06:04:00,
2013-01-20 22:05:00,15.6,3.1,30.27,SSE,158,0.0,0.0,57,0.00,,---,0.00,VWS V14.00,2013-01-21 06:05:00,
2013-01-20 22:06:00,15.6,3.1,30.27,SSE,158,0.0,0.0,57,0.00,,---,0.00,VWS V14.00,2013-01-21 06:06:00,
2013-01-20 22:09:00,16.0,4.2,30.27,SSE,158,0.0,0.0,59,0.00,,---,0.00,VWS V14.00,2013-01-21 06:09:00,
2013-01-20 22:10:00,16.3,4.9,30.27,SSE,158,0.0,0.0,60,0.00,,---,0.00,VWS V14.00,2013-01-21 06:10:00,
2013-01-20 22:12:00,16.3,5.3,30.27,SSE,158,0.0,0.0,61,0.00,,---,0.00,VWS V14.00,2013-01-21 06:12:00,
2013-01-20 22:15:00,16.5,5.1,30.27,SSE,158,0.0,0.0,60,0.00,,---,0.00,VWS V14.00,2013-01-21 06:15:00,
2013-01-20 22:17:00,16.5,5.1,30.27,SSE,158,0.0,0.0,60,0.00,,---,0.00,VWS V14.00,2013-01-21 06:17:00,
2013-01-20 22:20:00,16.9,6.5,30.27,SSE,158,0.0,0.0,63,0.00,,---,0.00,VWS V14.00,2013-01-21 06:20:00,
2013-01-20 22:21:00,16.9,6.5,30.27,SSE,158,0.0,0.0,63,0.00,,---,0.00,VWS V14.00,2013-01-21 06:21:00,
2013-01-20 22:22:00,16.9,6.5,30.27,SSE,158,0.0,0.0,63,0.00,,---,0.00,VWS V14.00,2013-01-21 06:22:00,
2013-01-20 22:25:00,16.7,5.6,30.27,SSE,158,0.0,0.0,61,0.00,,---,0.00,VWS V14.00,2013-01-21 06:25:00,
2013-01-20 22:26:00,16.5,5.4,30.27,SSE,158,0.0,0.0,61,0.00,,---,0.00,VWS V14.00,2013-01-21 06:26:00,
2013-01-20 22:27:00,16.5,5.4,30.27,SSE,158,0.0,0.0,61,0.00,,---,0.00,VWS V14.00,2013-01-21 06:27:00,
2013-01-20 22:30:00,16.5,5.4,30.27,SSE,158,0.0,0.0,61,0.00,,---,0.00,VWS V14.00,2013-01-21 06:30:00,
2013-01-20 22:31:00,16.0,4.6,30.27,SSE,158,0.0,0.0,60,0.00,,---,0.00,VWS V14.00,2013-01-21 06:31:00,
2013-01-20 22:32:00,15.8,4.4,30.27,SSE,158,0.0,0.0,60,0.00,,---,0.00,VWS V14.00,2013-01-21 06:32:00,
2013-01-20 22:35:00,15.8,4.4,30.27,SSE,158,0.0,0.0,60,0.00,,---,0.00,VWS V14.00,2013-01-21 06:35:00,
2013-01-20 22:36:00,15.8,4.4,30.27,SSE,158,0.0,0.0,60,0.00,,---,0.00,VWS V14.00,2013-01-21 06:36:00,
2013-01-20 22:37:00,15.8,4.4,30.27,SSE,158,0.0,0.0,60,0.00,,---,0.00,VWS V14.00,2013-01-21 06:37:00,
2013-01-20 22:38:00,15.1,4.4,30.27,SSE,158,0.0,0.0,62,0.00,,---,0.00,VWS V14.00,2013-01-21 06:38:00,
2013-01-20 22:40:00,15.1,4.8,30.27,SSE,158,0.0,0.0,63,0.00,,---,0.00,VWS V14.00,2013-01-21 06:40:00,
2013-01-20 22:41:00,15.1,4.8,30.27,SSE,158,0.0,0.0,63,0.00,,---,0.00,VWS V14.00,2013-01-21 06:41:00,
2013-01-20 22:42:00,15.1,4.8,30.27,SSE,158,0.0,0.0,63,0.00,,---,0.00,VWS V14.00,2013-01-21 06:42:00,
2013-01-20 22:43:00,14.7,4.1,30.27,SSE,158,0.0,0.0,62,0.00,,---,0.00,VWS V14.00,2013-01-21 06:43:00,
2013-01-20 22:45:00,14.7,3.4,30.27,SSE,158,0.0,0.0,60,0.00,,---,0.00,VWS V14.00,2013-01-21 06:45:00,
2013-01-20 22:46:00,14.7,3.4,30.27,SSE,158,0.0,0.0,60,0.00,,---,0.00,VWS V14.00,2013-01-21 06:46:00,
2013-01-20 22:47:00,14.7,3.4,30.27,SSE,158,0.0,0.0,60,0.00,,---,0.00,VWS V14.00,2013-01-21 06:47:00,
2013-01-20 22:48:00,14.9,3.5,30.27,SSE,158,0.0,0.0,60,0.00,,---,0.00,VWS V14.00,2013-01-21 06:48:00,
2013-01-20 22:50:00,14.5,3.2,30.27,SSE,158,0.0,0.0,60,0.00,,---,0.00,VWS V14.00,2013-01-21 06:50:00,
2013-01-20 22:51:00,14.5,3.2,30.27,SSE,158,0.0,0.0,60,0.00,,---,0.00,VWS V14.00,2013-01-21 06:51:00,
2013-01-20 22:52:00,14.5,3.2,30.27,SSE,158,0.0,0.0,60,0.00,,---,0.00,VWS V14.00,2013-01-21 06:52:00,
2013-01-20 22:53:00,14.4,3.0,30.27,SSE,158,0.0,0.0,60,0.00,,---,0.00,VWS V14.00,2013-01-21 06:53:00,
2013-01-20 22:55:00,14.4,3.0,30.27,SSE,158,0.0,0.0,60,0.00,,---,0.00,VWS V14.00,2013-01-21 06:55:00,
2013-01-20 22:56:00,14.4,3.0,30.27,SSE,158,0.0,0.0,60,0.00,,---,0.00,VWS V14.00,2013-01-21 06:56:00,
2013-01-20 22:57:00,14.2,3.6,30.27,SSE,158,0.0,0.0,62,0.00,,---,0.00,VWS V14.00,2013-01-21 06:57:00,
2013-01-20 22:59:00,14.2,3.2,30.27,NNE,22,0.0,0.0,61,0.00,,---,0.00,VWS V14.00,2013-01-21 06:59:00,
2013-01-20 23:00:00,14.2,3.2,30.27,NNE,22,0.0,0.0,61,0.00,,---,0.00,VWS V14.00,2013-01-21 07:00:00,
2013-01-20 23:01:00,14.2,2.9,30.27,NNE,22,0.0,0.0,60,0.00,,---,0.00,VWS V14.00,2013-01-21 07:01:00,
2013-01-20 23:03:00,14.2,2.5,30.27,NNE,22,0.0,0.0,59,0.00,,---,0.00,VWS V14.00,2013-01-21 07:03:00,
2013-01-20 23:04:00,14.4,2.7,30.27,NNE,22,0.0,0.0,59,0.00,,---,0.00,VWS V14.00,2013-01-21 07:04:00,
2013-01-20 23:05:00,14.4,3.0,30.27,NNE,22,0.0,0.0,60,0.00,,---,0.00,VWS V14.00,2013-01-21 07:05:00,
2013-01-20 23:07:00,14.2,2.9,30.27,NNE,22,0.0,0.0,60,0.00,,---,0.00,VWS V14.00,2013-01-21 07:07:00,
2013-01-20 23:08:00,14.2,2.9,30.27,NNE,22,0.0,0.0,60,0.00,,---,0.00,VWS V14.00,2013-01-21 07:08:00,
2013-01-20 23:09:00,14.2,2.9,30.27,NNE,22,0.0,0.0,60,0.00,,---,0.00,VWS V14.00,2013-01-21 07:09:00,
2013-01-20 23:10:00,14.0,2.7,30.27,NNE,22,0.0,0.0,60,0.00,,---,0.00,VWS V14.00,2013-01-21 07:10:00,
2013-01-20 23:13:00,13.8,2.5,30.27,NNE,22,0.0,0.0,60,0.00,,---,0.00,VWS V14.00,2013-01-21 07:13:00,
2013-01-20 23:14:00,13.6,2.3,30.27,NNE,22,0.0,0.0,60,0.00,,---,0.00,VWS V14.00,2013-01-21 07:14:00,
2013-01-20 23:15:00,13.6,2.3,30.27,NNE,22,0.0,0.0,60,0.00,,---,0.00,VWS V14.00,2013-01-21 07:15:00,
2013-01-20 23:18:00,13.5,2.2,30.27,NNE,22,0.0,0.0,60,0.00,,---,0.00,VWS V14.00,2013-01-21 07:18:00,
2013-01-20 23:19:00,13.5,2.2,30.27,NNE,22,0.0,0.0,60,0.00,,---,0.00,VWS V14.00,2013-01-21 07:19:00,
2013-01-20 23:20:00,13.5,2.2,30.27,NNE,22,0.0,0.0,60,0.00,,---,0.00,VWS V14.00,2013-01-21 07:20:00,
2013-01-20 23:23:00,13.3,2.0,30.27,NNE,22,0.0,0.0,60,0.00,,---,0.00,VWS V14.00,2013-01-21 07:23:00,
2013-01-20 23:24:00,12.9,1.7,30.27,NNE,22,0.0,0.0,60,0.00,,---,0.00,VWS V14.00,2013-01-21 07:24:00,
2013-01-20 23:25:00,12.9,1.7,30.27,NNE,22,0.0,0.0,60,0.00,,---,0.00,VWS V14.00,2013-01-21 07:25:00,
2013-01-20 23:28:00,12.7,1.5,30.27,NNE,22,0.0,0.0,60,0.00,,---,0.00,VWS V14.00,2013-01-21 07:28:00,
2013-01-20 23:29:00,12.7,1.5,30.27,NNE,22,0.0,0.0,60,0.00,,---,0.00,VWS V14.00,2013-01-21 07:29:00,
2013-01-20 23:30:00,12.7,1.5,30.27,NNE,22,0.0,0.0,60,0.00,,---,0.00,VWS V14.00,2013-01-21 07:30:00,
2013-01-20 23:34:00,12.6,1.3,30.27,NNE,22,0.0,0.0,60,0.00,,---,0.00,VWS V14.00,2013-01-21 07:34:00,
2013-01-20 23:35:00,12.7,1.5,30.27,NNE,22,0.0,0.0,60,0.00,,---,0.00,VWS V14.00,2013-01-21 07:35:00,
2013-01-20 23:36:00,12.7,1.5,30.27,NW,315,0.0,0.0,60,0.00,,---,0.00,VWS V14.00,2013-01-21 07:36:00,
2013-01-20 23:39:00,12.6,1.3,30.27,NW,315,0.0,0.0,60,0.00,,---,0.00,VWS V14.00,2013-01-21 07:39:00,
2013-01-20 23:40:00,12.6,1.3,30.27,NW,315,0.0,0.0,60,0.00,,---,0.00,VWS V14.00,2013-01-21 07:40:00,
2013-01-20 23:41:00,12.6,1.3,30.27,NW,315,0.0,0.0,60,0.00,,---,0.00,VWS V14.00,2013-01-21 07:41:00,
2013-01-20 23:45:00,12.6,1.3,30.27,NW,315,0.0,0.0,60,0.00,,---,0.00,VWS V14.00,2013-01-21 07:45:00,
2013-01-20 23:48:00,13.3,2.0,30.27,NW,315,0.0,0.0,60,0.00,,---,0.00,VWS V14.00,2013-01-21 07:48:00,
2013-01-20 23:50:00,13.3,2.0,30.27,NW,315,0.0,0.0,60,0.00,,---,0.00,VWS V14.00,2013-01-21 07:50:00,
2013-01-20 23:54:00,13.3,2.0,30.27,NW,315,0.0,0.0,60,0.00,,---,0.00,VWS V14.00,2013-01-21 07:54:00,
2013-01-20 23:55:00,13.1,1.8,30.27,NW,315,0.0,0.0,60,0.00,,---,0.00,VWS V14.00,2013-01-21 07:55:00,
2013-01-20 23:56:00,13.1,1.8,30.27,NW,315,0.0,0.0,60,0.00,,---,0.00,VWS V14.00,2013-01-21 07:56:00,
2013-01-20 23:59:00,13.3,2.0,30.27,NW,315,0.0,0.9,60,0.00,,---,0.00,VWS V14.00,2013-01-21 07:59:00,